Time,TemperatureF,DewpointF,PressureIn,WindDirection,WindDirectionDegrees,WindSpeedMPH,WindSpeedGustMPH,Humidity,HourlyPrecipIn,Conditions,Clouds,dailyrainin,SoftwareType,DateUTC
2013-12-17 00:00:00,34.0,6.5,30.12,WSW,238,0.0,0.0,31,0.00,,---,0.00,VWS V14.01,2013-12-17 07:00:00,
2013-12-17 00:02:00,34.5,7.0,30.12,NW,313,2.7,5.8,31,0.00,,---,0.00,VWS V14.01,2013-12-17 07:02:00,
2013-12-17 00:03:00,35.4,7.8,30.12,WNW,283,3.6,3.6,31,0.00,,---,0.00,VWS V14.01,2013-12-17 07:03:00,
2013-12-17 00:04:00,35.6,7.2,30.12,WNW,283,2.2,2.2,30,0.00,,---,0.00,VWS V14.01,2013-12-17 07:04:00,
2013-12-17 00:05:00,35.6,7.2,30.12,SSW,205,3.6,3.6,30,0.00,,---,0.00,VWS V14.01,2013-12-17 07:05:00,
2013-12-17 00:07:00,36.5,8.0,30.12,SSW,197,2.2,2.7,30,0.00,,---,0.00,VWS V14.01,2013-12-17 07:07:00,
2013-12-17 00:08:00,36.5,8.0,30.12,SSW,197,2.7,2.7,30,0.00,,---,0.00,VWS V14.01,2013-12-17 07:08:00,
2013-12-17 00:09:00,36.5,8.0,30.12,SSW,196,2.7,3.1,30,0.00,,---,0.00,VWS V14.01,2013-12-17 07:09:00,
2013-12-17 00:10:00,36.3,7.9,30.12,SSW,196,0.0,2.7,30,0.00,,---,0.00,VWS V14.01,2013-12-17 07:10:00,
2013-12-17 00:13:00,36.3,7.9,30.12,SW,227,3.6,4.9,30,0.00,,---,0.00,VWS V14.01,2013-12-17 07:13:00,
2013-12-17 00:14:00,36.5,8.0,30.12,SSW,202,2.7,4.0,30,0.00,,---,0.00,VWS V14.01,2013-12-17 07:14:00,
2013-12-17 00:15:00,38.3,8.8,30.12,SSW,205,5.4,5.4,29,0.00,,,0.00,VWS V15.00,2013-12-17 07:15:00,
2013-12-17 00:16:00,36.3,7.9,30.12,SSW,193,3.1,3.1,30,0.00,,---,0.00,VWS V14.01,2013-12-17 07:16:00,
2013-12-17 00:18:00,36.1,7.7,30.12,SSW,192,2.7,2.7,30,0.00,,---,0.00,VWS V14.01,2013-12-17 07:18:00,
2013-12-17 00:19:00,35.8,7.4,30.12,South,191,0.0,0.0,30,0.00,,---,0.00,VWS V14.01,2013-12-17 07:19:00,
2013-12-17 00:21:00,35.4,7.8,30.12,South,191,0.0,0.0,31,0.00,,---,0.00,VWS V14.01,2013-12-17 07:21:00,
2013-12-17 00:23:00,35.1,7.5,30.12,South,191,0.0,0.0,31,0.00,,---,0.00,VWS V14.01,2013-12-17 07:23:00,
2013-12-17 00:24:00,35.1,7.5,30.12,SSW,206,3.6,4.0,31,0.00,,---,0.00,VWS V14.01,2013-12-17 07:24:00,
2013-12-17 00:25:00,35.2,7.7,30.12,SSW,212,4.0,4.0,31,0.00,,---,0.00,VWS V14.01,2013-12-17 07:25:00,
2013-12-17 00:26:00,35.6,7.2,30.12,SSW,213,4.0,4.0,30,0.00,,---,0.00,VWS V14.01,2013-12-17 07:26:00,
2013-12-17 00:28:00,36.3,7.9,30.12,SW,234,3.1,3.6,30,0.00,,---,0.00,VWS V14.01,2013-12-17 07:28:00,
2013-12-17 00:30:00,36.9,8.3,30.12,SW,234,3.1,3.1,30,0.00,,---,0.00,VWS V14.01,2013-12-17 07:30:00,
2013-12-17 00:32:00,37.4,8.1,30.12,SW,218,2.7,2.7,29,0.00,,---,0.00,VWS V14.01,2013-12-17 07:32:00,
2013-12-17 00:33:00,37.8,8.4,30.12,SSW,206,2.7,2.7,29,0.00,,---,0.00,VWS V14.01,2013-12-17 07:33:00,
2013-12-17 00:34:00,37.8,8.4,30.12,SSW,206,2.7,2.7,29,0.00,,---,0.00,VWS V14.01,2013-12-17 07:34:00,
2013-12-17 00:35:00,37.9,8.5,30.12,SSW,206,2.7,3.1,29,0.00,,---,0.00,VWS V14.01,2013-12-17 07:35:00,
2013-12-17 00:37:00,37.9,8.5,30.12,SSW,206,0.0,2.7,29,0.00,,---,0.00,VWS V14.01,2013-12-17 07:37:00,
2013-12-17 00:38:00,37.8,8.4,30.12,South,187,2.7,3.1,29,0.00,,---,0.00,VWS V14.01,2013-12-17 07:38:00,
2013-12-17 00:39:00,37.8,8.4,30.12,South,187,2.7,3.1,29,0.00,,---,0.00,VWS V14.01,2013-12-17 07:39:00,
2013-12-17 00:40:00,37.6,8.2,30.12,South,187,2.2,2.7,29,0.00,,---,0.00,VWS V14.01,2013-12-17 07:40:00,
2013-12-17 00:42:00,36.9,8.3,30.12,SSW,194,5.4,5.4,30,0.00,,---,0.00,VWS V14.01,2013-12-17 07:42:00,
2013-12-17 00:43:00,36.7,8.2,30.12,SSW,204,3.1,3.1,30,0.00,,---,0.00,VWS V14.01,2013-12-17 07:43:00,
2013-12-17 00:44:00,36.7,8.2,30.12,SSW,204,3.6,3.6,30,0.00,,---,0.00,VWS V14.01,2013-12-17 07:44:00,
2013-12-17 00:45:00,36.7,8.2,30.12,SSW,192,2.7,2.7,30,0.00,,---,0.00,VWS V14.01,2013-12-17 07:45:00,
2013-12-17 00:47:00,36.3,7.9,30.12,SSW,192,3.6,3.6,30,0.00,,---,0.00,VWS V14.01,2013-12-17 07:47:00,
2013-12-17 00:49:00,36.1,7.7,30.12,SSW,195,3.6,3.6,30,0.00,,---,0.00,VWS V14.01,2013-12-17 07:49:00,
2013-12-17 00:50:00,36.0,7.6,30.12,SSW,197,5.4,5.4,30,0.00,,---,0.00,VWS V14.01,2013-12-17 07:50:00,
2013-12-17 00:53:00,36.5,8.0,30.12,SSW,193,3.6,4.0,30,0.00,,---,0.00,VWS V14.01,2013-12-17 07:53:00,
2013-12-17 00:54:00,36.5,8.0,30.12,South,183,3.6,4.0,30,0.00,,---,0.00,VWS V14.01,2013-12-17 07:54:00,
2013-12-17 00:55:00,36.5,8.0,30.12,SSW,202,4.0,4.9,30,0.00,,---,0.00,VWS V14.01,2013-12-17 07:55:00,
2013-12-17 00:56:00,36.5,8.0,30.12,SSW,201,2.7,4.0,30,0.00,,---,0.00,VWS V14.01,2013-12-17 07:56:00,
2013-12-17 00:58:00,36.3,7.9,30.12,SSW,204,4.0,4.9,30,0.00,,---,0.00,VWS V14.01,2013-12-17 07:58:00,
2013-12-17 00:59:00,36.3,7.9,30.12,SSW,202,4.0,4.9,30,0.00,,---,0.00,VWS V14.01,2013-12-17 07:59:00,
2013-12-17 01:00:00,36.3,7.9,30.12,SSW,199,3.6,3.6,30,0.00,,---,0.00,VWS V14.01,2013-12-17 08:00:00,
2013-12-17 01:01:00,36.3,7.9,30.12,SSW,200,3.1,4.0,30,0.00,,---,0.00,VWS V14.01,2013-12-17 08:01:00,
2013-12-17 01:03:00,36.3,7.9,30.12,SSW,200,5.4,5.4,30,0.00,,---,0.00,VWS V14.01,2013-12-17 08:03:00,
2013-12-17 01:04:00,36.5,7.3,30.12,SSW,205,5.4,5.4,29,0.00,,---,0.00,VWS V14.01,2013-12-17 08:04:00,
2013-12-17 01:05:00,36.5,7.3,30.12,SW,218,5.4,5.8,29,0.00,,---,0.00,VWS V14.01,2013-12-17 08:05:00,
2013-12-17 01:06:00,36.9,7.6,30.12,SW,218,4.0,5.4,29,0.00,,---,0.00,VWS V14.01,2013-12-17 08:06:00,
2013-12-17 01:08:00,37.6,8.2,30.12,SSW,205,3.6,4.0,29,0.00,,---,0.00,VWS V14.01,2013-12-17 08:08:00,
2013-12-17 01:09:00,37.8,8.4,30.12,SSW,198,5.8,5.8,29,0.00,,---,0.00,VWS V14.01,2013-12-17 08:09:00,
2013-12-17 01:10:00,37.8,8.4,30.12,SSW,193,3.6,5.8,29,0.00,,---,0.00,VWS V14.01,2013-12-17 08:10:00,
2013-12-17 01:11:00,38.1,8.7,30.12,SSW,205,3.1,3.6,29,0.00,,---,0.00,VWS V14.01,2013-12-17 08:11:00,
2013-12-17 01:13:00,38.1,6.3,30.12,SSW,194,5.4,6.3,26,0.00,,---,0.00,VWS V14.01,2013-12-17 08:13:00,
2013-12-17 01:15:00,38.3,8.8,30.12,SSW,205,5.4,5.4,29,0.00,,---,0.00,VWS V14.01,2013-12-17 08:15:00,
2013-12-17 01:16:00,38.1,8.7,30.12,SSW,202,5.4,5.4,29,0.00,,---,0.00,VWS V14.01,2013-12-17 08:16:00,
2013-12-17 01:17:00,38.1,6.3,30.12,SSW,199,5.4,5.4,26,0.00,,---,0.00,VWS V14.01,2013-12-17 08:17:00,
2013-12-17 01:18:00,38.1,8.7,30.12,SSW,196,3.6,3.6,29,0.00,,---,0.00,VWS V14.01,2013-12-17 08:18:00,
2013-12-17 01:20:00,38.1,6.3,30.12,SSW,208,5.4,5.8,26,0.00,,---,0.00,VWS V14.01,2013-12-17 08:20:00,
2013-12-17 01:21:00,37.9,6.1,30.12,SSW,202,6.3,6.3,26,0.00,,---,0.00,VWS V14.01,2013-12-17 08:21:00,
2013-12-17 01:22:00,37.9,6.1,30.12,SSW,213,5.4,5.4,26,0.00,,---,0.00,VWS V14.01,2013-12-17 08:22:00,
2013-12-17 01:23:00,38.1,6.3,30.12,SSW,204,4.9,4.9,26,0.00,,---,0.00,VWS V14.01,2013-12-17 08:23:00,
2013-12-17 01:25:00,38.1,6.3,30.12,SSW,196,4.9,4.9,26,0.00,,---,0.00,VWS V14.01,2013-12-17 08:25:00,
2013-12-17 01:26:00,38.1,6.3,30.12,SSW,203,4.0,4.0,26,0.00,,---,0.00,VWS V14.01,2013-12-17 08:26:00,
2013-12-17 01:27:00,37.9,6.1,30.12,SSW,205,4.9,4.9,26,0.00,,---,0.00,VWS V14.01,2013-12-17 08:27:00,
2013-12-17 01:29:00,37.9,6.1,30.12,SSW,203,4.5,4.5,26,0.00,,---,0.00,VWS V14.01,2013-12-17 08:29:00,
2013-12-17 01:30:00,37.8,6.0,30.12,SSW,203,4.0,4.9,26,0.00,,---,0.00,VWS V14.01,2013-12-17 08:30:00,
2013-12-17 01:31:00,37.8,6.0,30.12,SSW,197,4.0,4.0,26,0.00,,---,0.00,VWS V14.01,2013-12-17 08:31:00,
2013-12-17 01:32:00,37.8,6.0,30.12,SSW,199,5.4,5.4,26,0.00,,---,0.00,VWS V14.01,2013-12-17 08:32:00,
2013-12-17 01:34:00,37.8,6.0,30.12,SSW,196,5.4,5.4,26,0.00,,---,0.00,VWS V14.01,2013-12-17 08:34:00,
2013-12-17 01:35:00,37.6,5.8,30.12,SSW,199,5.4,5.4,26,0.00,,---,0.00,VWS V14.01,2013-12-17 08:35:00,
2013-12-17 01:36:00,37.6,5.8,30.12,SSW,194,5.4,5.4,26,0.00,,---,0.00,VWS V14.01,2013-12-17 08:36:00,
2013-12-17 01:37:00,37.6,5.8,30.12,SSW,196,5.4,5.4,26,0.00,,---,0.00,VWS V14.01,2013-12-17 08:37:00,
2013-12-17 01:39:00,37.6,5.8,30.12,SSW,200,4.9,4.9,26,0.00,,---,0.00,VWS V14.01,2013-12-17 08:39:00,
2013-12-17 01:40:00,37.6,5.8,30.12,SSW,197,5.4,5.4,26,0.00,,---,0.00,VWS V14.01,2013-12-17 08:40:00,
2013-12-17 01:41:00,37.6,5.8,30.12,SSW,195,5.8,5.8,26,0.00,,---,0.00,VWS V14.01,2013-12-17 08:41:00,
2013-12-17 01:42:00,37.6,5.8,30.12,SSW,202,6.3,6.3,26,0.00,,---,0.00,VWS V14.01,2013-12-17 08:42:00,
2013-12-17 01:44:00,37.6,5.8,30.12,SSW,196,5.4,5.4,26,0.00,,---,0.00,VWS V14.01,2013-12-17 08:44:00,
2013-12-17 01:45:00,37.6,5.8,30.12,SSW,207,4.0,4.0,26,0.00,,---,0.00,VWS V14.01,2013-12-17 08:45:00,
2013-12-17 01:46:00,37.6,5.8,30.12,SSW,205,4.0,4.0,26,0.00,,---,0.00,VWS V14.01,2013-12-17 08:46:00,
2013-12-17 01:47:00,37.6,5.8,30.12,SSW,194,4.0,4.0,26,0.00,,---,0.00,VWS V14.01,2013-12-17 08:47:00,
2013-12-17 01:48:00,37.6,5.8,30.12,SSW,196,5.4,5.4,26,0.00,,---,0.00,VWS V14.01,2013-12-17 08:48:00,
2013-12-17 01:49:00,37.6,5.8,30.12,SSW,199,5.4,5.4,26,0.00,,---,0.00,VWS V14.01,2013-12-17 08:49:00,
2013-12-17 01:50:00,37.8,6.0,30.12,SSW,195,4.0,4.0,26,0.00,,---,0.00,VWS V14.01,2013-12-17 08:50:00,
2013-12-17 01:51:00,37.9,6.1,30.12,SSW,195,5.4,5.4,26,0.00,,---,0.00,VWS V14.01,2013-12-17 08:51:00,
2013-12-17 01:52:00,37.9,6.1,30.12,SSW,197,3.6,3.6,26,0.00,,---,0.00,VWS V14.01,2013-12-17 08:52:00,
2013-12-17 01:53:00,37.9,6.1,30.12,SSW,199,4.0,4.0,26,0.00,,---,0.00,VWS V14.01,2013-12-17 08:53:00,
2013-12-17 01:54:00,38.1,6.3,30.12,SSW,195,4.5,4.5,26,0.00,,---,0.00,VWS V14.01,2013-12-17 08:54:00,
2013-12-17 01:55:00,38.1,6.3,30.12,SSW,192,5.8,5.8,26,0.00,,---,0.00,VWS V14.01,2013-12-17 08:55:00,
2013-12-17 01:57:00,38.1,6.3,30.12,SSW,194,4.0,4.9,26,0.00,,---,0.00,VWS V14.01,2013-12-17 08:57:00,
2013-12-17 01:58:00,38.1,6.3,30.12,South,187,2.7,3.6,26,0.00,,---,0.00,VWS V14.01,2013-12-17 08:58:00,
2013-12-17 01:59:00,37.9,6.1,30.12,SSW,193,4.0,4.0,26,0.00,,---,0.00,VWS V14.01,2013-12-17 08:59:00,
2013-12-17 02:00:00,37.6,5.8,30.12,South,191,4.0,4.9,26,0.00,,---,0.00,VWS V14.01,2013-12-17 09:00:00,
2013-12-17 02:02:00,37.4,5.7,30.12,South,189,3.6,4.9,26,0.00,,---,0.00,VWS V14.01,2013-12-17 09:02:00,
2013-12-17 02:03:00,37.2,6.3,30.12,SSW,201,4.9,4.9,27,0.00,,---,0.00,VWS V14.01,2013-12-17 09:03:00,
2013-12-17 02:04:00,37.0,6.2,30.12,SSW,199,5.4,5.4,27,0.00,,---,0.00,VWS V14.01,2013-12-17 09:04:00,
2013-12-17 02:05:00,37.0,6.2,30.12,SSW,200,4.9,4.9,27,0.00,,---,0.00,VWS V14.01,2013-12-17 09:05:00,
2013-12-17 02:07:00,36.9,6.0,30.12,SSW,199,5.4,5.4,27,0.00,,---,0.00,VWS V14.01,2013-12-17 09:07:00,
2013-12-17 02:08:00,36.9,6.0,30.12,SSW,196,5.4,5.4,27,0.00,,---,0.00,VWS V14.01,2013-12-17 09:08:00,
2013-12-17 02:09:00,36.9,6.0,30.12,SSW,200,5.4,5.4,27,0.00,,---,0.00,VWS V14.01,2013-12-17 09:09:00,
2013-12-17 02:11:00,36.9,6.0,30.12,SSW,198,5.4,5.8,27,0.00,,---,0.00,VWS V14.01,2013-12-17 09:11:00,
2013-12-17 02:13:00,37.0,6.2,30.12,SSW,196,5.4,6.3,27,0.00,,---,0.00,VWS V14.01,2013-12-17 09:13:00,
2013-12-17 02:14:00,37.2,6.3,30.12,SSW,204,5.4,5.4,27,0.00,,---,0.00,VWS V14.01,2013-12-17 09:14:00,
2013-12-17 02:15:00,40.5,5.6,30.09,SW,223,5.8,6.3,23,0.00,,,0.00,VWS V15.00,2013-12-17 09:15:00,
2013-12-17 02:16:00,37.2,6.3,30.12,SSW,193,5.4,6.3,27,0.00,,---,0.00,VWS V14.01,2013-12-17 09:16:00,
2013-12-17 02:18:00,37.4,5.7,30.12,SSW,204,4.9,4.9,26,0.00,,---,0.00,VWS V14.01,2013-12-17 09:18:00,
2013-12-17 02:19:00,37.6,5.8,30.12,SSW,198,4.9,4.9,26,0.00,,---,0.00,VWS V14.01,2013-12-17 09:19:00,
2013-12-17 02:21:00,37.8,6.0,30.12,SSW,192,5.8,5.8,26,0.00,,---,0.00,VWS V14.01,2013-12-17 09:21:00,
2013-12-17 02:23:00,38.1,6.3,30.12,SSW,199,5.4,5.4,26,0.00,,---,0.00,VWS V14.01,2013-12-17 09:23:00,
2013-12-17 02:24:00,38.1,6.3,30.12,SSW,196,5.4,5.4,26,0.00,,---,0.00,VWS V14.01,2013-12-17 09:24:00,
2013-12-17 02:25:00,38.3,6.4,30.12,SSW,203,4.9,4.9,26,0.00,,---,0.00,VWS V14.01,2013-12-17 09:25:00,
2013-12-17 02:26:00,38.3,6.4,30.12,SSW,195,4.9,4.9,26,0.00,,---,0.00,VWS V14.01,2013-12-17 09:26:00,
2013-12-17 02:28:00,38.3,4.7,30.12,SSW,199,4.5,5.8,24,0.00,,---,0.00,VWS V14.01,2013-12-17 09:28:00,
2013-12-17 02:29:00,38.5,6.6,30.12,South,178,3.6,3.6,26,0.00,,---,0.00,VWS V14.01,2013-12-17 09:29:00,
2013-12-17 02:30:00,38.5,4.8,30.12,SSW,194,5.4,5.4,24,0.00,,---,0.00,VWS V14.01,2013-12-17 09:30:00,
2013-12-17 02:31:00,38.5,4.8,30.12,SSW,197,6.3,6.3,24,0.00,,---,0.00,VWS V14.01,2013-12-17 09:31:00,
2013-12-17 02:33:00,38.7,5.0,30.09,SSW,193,4.0,5.4,24,0.00,,---,0.00,VWS V14.01,2013-12-17 09:33:00,
2013-12-17 02:34:00,38.7,5.0,30.09,SSW,202,5.8,5.8,24,0.00,,---,0.00,VWS V14.01,2013-12-17 09:34:00,
2013-12-17 02:35:00,38.7,5.0,30.09,SSW,204,5.4,5.8,24,0.00,,---,0.00,VWS V14.01,2013-12-17 09:35:00,
2013-12-17 02:36:00,38.7,5.0,30.09,SSW,201,5.8,5.8,24,0.00,,---,0.00,VWS V14.01,2013-12-17 09:36:00,
2013-12-17 02:39:00,38.7,6.7,30.09,SSW,203,4.5,4.5,26,0.00,,---,0.00,VWS V14.01,2013-12-17 09:39:00,
2013-12-17 02:40:00,38.5,4.8,30.09,SSW,199,5.8,5.8,24,0.00,,---,0.00,VWS V14.01,2013-12-17 09:40:00,
2013-12-17 02:41:00,38.5,4.8,30.09,SSW,199,5.8,5.8,24,0.00,,---,0.00,VWS V14.01,2013-12-17 09:41:00,
2013-12-17 02:44:00,38.7,5.0,30.09,SSW,200,3.6,4.9,24,0.00,,---,0.00,VWS V14.01,2013-12-17 09:44:00,
2013-12-17 02:45:00,38.7,5.0,30.09,SSW,201,4.0,4.0,24,0.00,,---,0.00,VWS V14.01,2013-12-17 09:45:00,
2013-12-17 02:46:00,38.7,5.0,30.09,SSW,195,4.9,4.9,24,0.00,,---,0.00,VWS V14.01,2013-12-17 09:46:00,
2013-12-17 02:47:00,38.8,5.2,30.09,SSW,210,4.5,5.4,24,0.00,,---,0.00,VWS V14.01,2013-12-17 09:47:00,
2013-12-17 02:49:00,38.8,5.2,30.09,SSW,200,5.4,5.4,24,0.00,,---,0.00,VWS V14.01,2013-12-17 09:49:00,
2013-12-17 02:50:00,38.8,5.2,30.09,SSW,195,4.9,4.9,24,0.00,,---,0.00,VWS V14.01,2013-12-17 09:50:00,
2013-12-17 02:51:00,38.8,6.9,30.09,SSW,203,4.0,4.0,26,0.00,,---,0.00,VWS V14.01,2013-12-17 09:51:00,
2013-12-17 02:52:00,38.8,5.2,30.09,SSW,206,3.6,4.9,24,0.00,,---,0.00,VWS V14.01,2013-12-17 09:52:00,
2013-12-17 02:54:00,39.0,5.3,30.09,SSW,206,5.4,6.3,24,0.00,,---,0.00,VWS V14.01,2013-12-17 09:54:00,
2013-12-17 02:55:00,39.2,7.2,30.09,SSW,198,4.9,4.9,26,0.00,,---,0.00,VWS V14.01,2013-12-17 09:55:00,
2013-12-17 02:56:00,39.2,4.5,30.09,SSW,208,4.5,5.4,23,0.00,,---,0.00,VWS V14.01,2013-12-17 09:56:00,
2013-12-17 02:57:00,39.2,4.5,30.09,SSW,211,4.5,4.9,23,0.00,,---,0.00,VWS V14.01,2013-12-17 09:57:00,
2013-12-17 02:59:00,39.4,4.7,30.09,SSW,197,4.0,4.0,23,0.00,,---,0.00,VWS V14.01,2013-12-17 09:59:00,
2013-12-17 03:00:00,39.4,7.4,30.09,SSW,206,3.1,3.1,26,0.00,,---,0.00,VWS V14.01,2013-12-17 10:00:00,
2013-12-17 03:01:00,39.4,4.7,30.09,SSW,195,4.0,4.0,23,0.00,,---,0.00,VWS V14.01,2013-12-17 10:01:00,
2013-12-17 03:02:00,39.6,4.8,30.09,SSW,205,3.6,4.0,23,0.00,,---,0.00,VWS V14.01,2013-12-17 10:02:00,
2013-12-17 03:04:00,39.7,5.0,30.09,SSW,204,3.6,4.9,23,0.00,,---,0.00,VWS V14.01,2013-12-17 10:04:00,
2013-12-17 03:05:00,39.7,7.7,30.09,SSW,206,4.0,4.0,26,0.00,,---,0.00,VWS V14.01,2013-12-17 10:05:00,
2013-12-17 03:06:00,39.7,7.7,30.09,SSW,196,5.4,5.4,26,0.00,,---,0.00,VWS V14.01,2013-12-17 10:06:00,
2013-12-17 03:07:00,39.7,7.7,30.09,SSW,202,5.8,5.8,26,0.00,,---,0.00,VWS V14.01,2013-12-17 10:07:00,
2013-12-17 03:09:00,39.9,5.1,30.09,SW,219,5.8,5.8,23,0.00,,---,0.00,VWS V14.01,2013-12-17 10:09:00,
2013-12-17 03:10:00,39.9,5.1,30.09,SW,219,5.8,5.8,23,0.00,,---,0.00,VWS V14.01,2013-12-17 10:10:00,
2013-12-17 03:12:00,40.1,8.0,30.09,SSW,205,6.3,6.3,26,0.00,,---,0.00,VWS V14.01,2013-12-17 10:12:00,
2013-12-17 03:15:00,40.5,5.6,30.09,SSW,213,6.3,6.3,23,0.00,,---,0.00,VWS V14.01,2013-12-17 10:15:00,
2013-12-17 03:16:00,40.5,5.6,30.09,SSW,213,4.9,4.9,23,0.00,,---,0.00,VWS V14.01,2013-12-17 10:16:00,
2013-12-17 03:17:00,40.5,5.6,30.09,SSW,211,5.4,5.4,23,0.00,,---,0.00,VWS V14.01,2013-12-17 10:17:00,
2013-12-17 03:20:00,40.6,8.4,30.09,SW,221,4.0,4.9,26,0.00,,---,0.00,VWS V14.01,2013-12-17 10:20:00,
2013-12-17 03:21:00,40.6,5.8,30.09,SSW,209,5.8,7.6,23,0.00,,---,0.00,VWS V14.01,2013-12-17 10:21:00,
2013-12-17 03:22:00,40.6,5.8,30.09,SW,218,5.4,6.3,23,0.00,,---,0.00,VWS V14.01,2013-12-17 10:22:00,
2013-12-17 03:25:00,40.6,5.8,30.09,WSW,243,3.6,3.6,23,0.00,,---,0.00,VWS V14.01,2013-12-17 10:25:00,
2013-12-17 03:26:00,40.6,5.8,30.09,SSW,207,5.4,5.8,23,0.00,,---,0.00,VWS V14.01,2013-12-17 10:26:00,
2013-12-17 03:27:00,40.6,5.8,30.09,South,188,6.3,7.6,23,0.00,,---,0.00,VWS V14.01,2013-12-17 10:27:00,
2013-12-17 03:30:00,40.8,5.9,30.09,SSW,211,6.3,8.3,23,0.00,,---,0.00,VWS V14.01,2013-12-17 10:30:00,
2013-12-17 03:31:00,40.8,5.9,30.09,West,265,6.3,6.3,23,0.00,,---,0.00,VWS V14.01,2013-12-17 10:31:00,
2013-12-17 03:32:00,40.8,5.9,30.09,SW,233,5.8,5.8,23,0.00,,---,0.00,VWS V14.01,2013-12-17 10:32:00,
2013-12-17 03:33:00,41.0,6.1,30.09,SSW,202,8.1,8.1,23,0.00,,---,0.00,VWS V14.01,2013-12-17 10:33:00,
2013-12-17 03:35:00,41.0,6.1,30.09,SW,223,6.3,6.3,23,0.00,,---,0.00,VWS V14.01,2013-12-17 10:35:00,
2013-12-17 03:36:00,41.0,6.1,30.09,SSW,203,8.1,8.1,23,0.00,,---,0.00,VWS V14.01,2013-12-17 10:36:00,
2013-12-17 03:37:00,41.0,6.1,30.09,SSW,204,10.1,10.1,23,0.00,,---,0.00,VWS V14.01,2013-12-17 10:37:00,
2013-12-17 03:38:00,41.0,6.1,30.09,SW,218,6.3,8.3,23,0.00,,---,0.00,VWS V14.01,2013-12-17 10:38:00,
2013-12-17 03:40:00,41.0,6.1,30.09,SW,214,8.3,8.3,23,0.00,,---,0.00,VWS V14.01,2013-12-17 10:40:00,
2013-12-17 03:41:00,41.0,6.1,30.09,SSW,206,8.7,8.7,23,0.00,,---,0.00,VWS V14.01,2013-12-17 10:41:00,
2013-12-17 03:42:00,41.0,6.1,30.09,SSW,206,8.7,8.7,23,0.00,,---,0.00,VWS V14.01,2013-12-17 10:42:00,
2013-12-17 03:44:00,41.2,6.2,30.09,SSW,202,7.2,7.6,23,0.00,,---,0.00,VWS V14.01,2013-12-17 10:44:00,
2013-12-17 03:45:00,41.2,6.2,30.09,SW,222,10.5,10.5,23,0.00,,---,0.00,VWS V14.01,2013-12-17 10:45:00,
2013-12-17 03:46:00,41.2,6.2,30.09,SSW,208,5.4,10.5,23,0.00,,---,0.00,VWS V14.01,2013-12-17 10:46:00,
2013-12-17 03:47:00,41.2,6.2,30.09,SSW,203,5.8,7.2,23,0.00,,---,0.00,VWS V14.01,2013-12-17 10:47:00,
2013-12-17 03:48:00,41.2,6.2,30.09,SSW,207,5.4,8.1,23,0.00,,---,0.00,VWS V14.01,2013-12-17 10:48:00,
2013-12-17 03:49:00,41.2,6.2,30.09,SW,228,5.4,6.3,23,0.00,,---,0.00,VWS V14.01,2013-12-17 10:49:00,
2013-12-17 03:50:00,41.2,6.2,30.09,South,190,6.3,12.8,23,0.00,,---,0.00,VWS V14.01,2013-12-17 10:50:00,
2013-12-17 03:51:00,41.2,6.2,30.09,SSW,209,13.6,13.6,23,0.00,,---,0.00,VWS V14.01,2013-12-17 10:51:00,
2013-12-17 03:52:00,41.2,6.2,30.09,SSW,211,6.7,8.1,23,0.00,,---,0.00,VWS V14.01,2013-12-17 10:52:00,
2013-12-17 03:53:00,41.2,6.2,30.09,SSW,204,8.1,8.1,23,0.00,,---,0.00,VWS V14.01,2013-12-17 10:53:00,
2013-12-17 03:54:00,41.2,6.2,30.09,SSW,211,7.6,10.5,23,0.00,,---,0.00,VWS V14.01,2013-12-17 10:54:00,
2013-12-17 03:56:00,41.2,6.2,30.09,SSW,208,7.6,7.6,23,0.00,,---,0.00,VWS V14.01,2013-12-17 10:56:00,
2013-12-17 03:58:00,41.2,6.2,30.09,SSW,201,9.6,9.6,23,0.00,,---,0.00,VWS V14.01,2013-12-17 10:58:00,
2013-12-17 04:00:00,41.2,6.2,30.09,SW,218,8.3,8.3,23,0.00,,---,0.00,VWS V14.01,2013-12-17 11:00:00,
2013-12-17 04:01:00,41.4,6.4,30.09,SSW,208,6.7,6.7,23,0.00,,---,0.00,VWS V14.01,2013-12-17 11:01:00,
2013-12-17 04:02:00,41.2,6.2,30.09,SSW,203,7.6,8.3,23,0.00,,---,0.00,VWS V14.01,2013-12-17 11:02:00,
2013-12-17 04:03:00,41.2,6.2,30.09,SSW,201,9.6,9.6,23,0.00,,---,0.00,VWS V14.01,2013-12-17 11:03:00,
2013-12-17 04:05:00,41.4,6.4,30.09,WSW,237,8.3,8.7,23,0.00,,---,0.00,VWS V14.01,2013-12-17 11:05:00,
2013-12-17 04:06:00,41.4,6.4,30.09,SSW,205,8.1,8.1,23,0.00,,---,0.00,VWS V14.01,2013-12-17 11:06:00,
2013-12-17 04:07:00,41.4,6.4,30.09,WSW,240,8.3,10.1,23,0.00,,---,0.00,VWS V14.01,2013-12-17 11:07:00,
2013-12-17 04:08:00,41.5,6.5,30.09,SSW,203,8.3,8.3,23,0.00,,---,0.00,VWS V14.01,2013-12-17 11:08:00,
2013-12-17 04:09:00,41.5,6.5,30.09,SSW,192,7.6,8.7,23,0.00,,---,0.00,VWS V14.01,2013-12-17 11:09:00,
2013-12-17 04:10:00,41.5,6.5,30.09,SSW,209,8.7,10.1,23,0.00,,---,0.00,VWS V14.01,2013-12-17 11:10:00,
2013-12-17 04:12:00,41.5,6.5,30.09,SSW,202,8.7,8.7,23,0.00,,---,0.00,VWS V14.01,2013-12-17 11:12:00,
2013-12-17 04:13:00,41.4,6.4,30.09,SW,229,8.3,8.3,23,0.00,,---,0.00,VWS V14.01,2013-12-17 11:13:00,
2013-12-17 04:14:00,41.4,6.4,30.09,SSW,197,5.4,5.4,23,0.00,,---,0.00,VWS V14.01,2013-12-17 11:14:00,
2013-12-17 04:15:00,41.2,6.2,30.06,West,259,4.9,5.4,23,0.00,,,0.00,VWS V15.00,2013-12-17 11:15:00,
2013-12-17 04:16:00,41.4,6.4,30.09,SW,215,10.5,10.5,23,0.00,,---,0.00,VWS V14.01,2013-12-17 11:16:00,
2013-12-17 04:17:00,41.4,6.4,30.06,SSW,200,8.1,9.2,23,0.00,,---,0.00,VWS V14.01,2013-12-17 11:17:00,
2013-12-17 04:18:00,41.4,6.4,30.06,WSW,248,5.8,5.8,23,0.00,,---,0.00,VWS V14.01,2013-12-17 11:18:00,
2013-12-17 04:20:00,41.5,6.5,30.06,South,186,7.6,7.6,23,0.00,,---,0.00,VWS V14.01,2013-12-17 11:20:00,
2013-12-17 04:21:00,41.5,6.5,30.06,SW,218,7.6,7.6,23,0.00,,---,0.00,VWS V14.01,2013-12-17 11:21:00,
2013-12-17 04:22:00,41.5,6.5,30.06,SW,235,4.9,5.8,23,0.00,,---,0.00,VWS V14.01,2013-12-17 11:22:00,
2013-12-17 04:23:00,41.5,6.5,30.06,SW,220,6.3,6.3,23,0.00,,---,0.00,VWS V14.01,2013-12-17 11:23:00,
2013-12-17 04:24:00,41.5,6.5,30.06,SSW,206,5.8,6.3,23,0.00,,---,0.00,VWS V14.01,2013-12-17 11:24:00,
2013-12-17 04:25:00,41.5,6.5,30.06,WSW,244,5.8,5.8,23,0.00,,---,0.00,VWS V14.01,2013-12-17 11:25:00,
2013-12-17 04:26:00,41.5,6.5,30.06,SW,218,6.3,6.3,23,0.00,,---,0.00,VWS V14.01,2013-12-17 11:26:00,
2013-12-17 04:27:00,41.7,6.7,30.06,SSW,193,5.8,5.8,23,0.00,,---,0.00,VWS V14.01,2013-12-17 11:27:00,
2013-12-17 04:28:00,41.7,6.7,30.06,South,191,7.2,7.2,23,0.00,,---,0.00,VWS V14.01,2013-12-17 11:28:00,
2013-12-17 04:29:00,41.7,6.7,30.06,SSW,205,5.8,7.2,23,0.00,,---,0.00,VWS V14.01,2013-12-17 11:29:00,
2013-12-17 04:30:00,41.9,6.8,30.06,SSW,209,6.3,6.3,23,0.00,,---,0.00,VWS V14.01,2013-12-17 11:30:00,
2013-12-17 04:31:00,41.9,6.8,30.06,SSW,209,3.6,6.3,23,0.00,,---,0.00,VWS V14.01,2013-12-17 11:31:00,
2013-12-17 04:32:00,41.9,6.8,30.06,SSW,206,7.6,7.6,23,0.00,,---,0.00,VWS V14.01,2013-12-17 11:32:00,
2013-12-17 04:34:00,41.9,6.8,30.06,SSW,201,10.1,10.1,23,0.00,,---,0.00,VWS V14.01,2013-12-17 11:34:00,
2013-12-17 04:35:00,42.1,7.0,30.06,SSW,199,8.1,8.1,23,0.00,,---,0.00,VWS V14.01,2013-12-17 11:35:00,
2013-12-17 04:37:00,42.1,7.0,30.06,SW,232,8.7,8.7,23,0.00,,---,0.00,VWS V14.01,2013-12-17 11:37:00,
2013-12-17 04:38:00,42.1,7.0,30.06,SW,215,3.6,6.3,23,0.00,,---,0.00,VWS V14.01,2013-12-17 11:38:00,
2013-12-17 04:39:00,42.1,7.0,30.06,SW,225,6.3,6.3,23,0.00,,---,0.00,VWS V14.01,2013-12-17 11:39:00,
2013-12-17 04:40:00,42.1,7.0,30.06,SW,230,5.8,5.8,23,0.00,,---,0.00,VWS V14.01,2013-12-17 11:40:00,
2013-12-17 04:42:00,42.1,7.0,30.06,SW,233,3.1,3.1,23,0.00,,---,0.00,VWS V14.01,2013-12-17 11:42:00,
2013-12-17 04:44:00,42.3,7.1,30.06,SSW,208,6.3,6.3,23,0.00,,---,0.00,VWS V14.01,2013-12-17 11:44:00,
2013-12-17 04:45:00,42.1,7.0,30.06,WNW,298,4.9,4.9,23,0.00,,---,0.00,VWS V14.01,2013-12-17 11:45:00,
2013-12-17 04:46:00,42.1,7.0,30.06,WSW,239,4.0,5.8,23,0.00,,---,0.00,VWS V14.01,2013-12-17 11:46:00,
2013-12-17 04:47:00,42.1,7.0,30.06,West,268,3.1,3.1,23,0.00,,---,0.00,VWS V14.01,2013-12-17 11:47:00,
2013-12-17 04:48:00,42.1,7.0,30.06,West,274,5.8,5.8,23,0.00,,---,0.00,VWS V14.01,2013-12-17 11:48:00,
2013-12-17 04:49:00,42.1,7.0,30.06,SSW,199,3.6,5.4,23,0.00,,---,0.00,VWS V14.01,2013-12-17 11:49:00,
2013-12-17 04:50:00,42.1,7.0,30.06,SW,217,5.8,5.8,23,0.00,,---,0.00,VWS V14.01,2013-12-17 11:50:00,
2013-12-17 04:52:00,41.9,6.8,30.06,WSW,258,0.0,3.1,23,0.00,,---,0.00,VWS V14.01,2013-12-17 11:52:00,
2013-12-17 04:53:00,41.7,6.7,30.06,South,169,2.7,2.7,23,0.00,,---,0.00,VWS V14.01,2013-12-17 11:53:00,
2013-12-17 04:54:00,41.7,6.7,30.06,SW,236,3.1,4.9,23,0.00,,---,0.00,VWS V14.01,2013-12-17 11:54:00,
2013-12-17 04:55:00,41.5,6.5,30.06,SSW,204,5.4,5.4,23,0.00,,---,0.00,VWS V14.01,2013-12-17 11:55:00,
2013-12-17 04:57:00,41.5,6.5,30.06,SSW,198,4.0,4.0,23,0.00,,---,0.00,VWS V14.01,2013-12-17 11:57:00,
2013-12-17 04:58:00,41.5,6.5,30.06,SW,215,4.0,6.3,23,0.00,,---,0.00,VWS V14.01,2013-12-17 11:58:00,
2013-12-17 04:59:00,41.5,6.5,30.06,SSW,197,4.9,4.9,23,0.00,,---,0.00,VWS V14.01,2013-12-17 11:59:00,
2013-12-17 05:00:00,41.5,6.5,30.06,SW,217,0.0,4.9,23,0.00,,---,0.00,VWS V14.01,2013-12-17 12:00:00,
2013-12-17 05:02:00,41.5,6.5,30.06,SSW,205,5.4,5.4,23,0.00,,---,0.00,VWS V14.01,2013-12-17 12:02:00,
2013-12-17 05:03:00,41.4,6.4,30.06,South,191,3.1,4.0,23,0.00,,---,0.00,VWS V14.01,2013-12-17 12:03:00,
2013-12-17 05:04:00,41.4,6.4,30.06,West,264,3.6,6.3,23,0.00,,---,0.00,VWS V14.01,2013-12-17 12:04:00,
2013-12-17 05:05:00,41.4,6.4,30.06,SSW,200,3.6,4.0,23,0.00,,---,0.00,VWS V14.01,2013-12-17 12:05:00,
2013-12-17 05:07:00,41.2,6.2,30.06,SSW,208,6.7,8.3,23,0.00,,---,0.00,VWS V14.01,2013-12-17 12:07:00,
2013-12-17 05:08:00,41.4,6.4,30.06,South,179,3.6,4.0,23,0.00,,---,0.00,VWS V14.01,2013-12-17 12:08:00,
2013-12-17 05:09:00,41.4,6.4,30.06,WSW,249,4.0,4.0,23,0.00,,---,0.00,VWS V14.01,2013-12-17 12:09:00,
2013-12-17 05:10:00,41.2,6.2,30.06,WSW,249,2.7,2.7,23,0.00,,---,0.00,VWS V14.01,2013-12-17 12:10:00,
2013-12-17 05:11:00,41.2,6.2,30.06,SSW,193,6.7,6.7,23,0.00,,---,0.00,VWS V14.01,2013-12-17 12:11:00,
2013-12-17 05:12:00,41.2,6.2,30.06,SW,226,3.6,5.8,23,0.00,,---,0.00,VWS V14.01,2013-12-17 12:12:00,
2013-12-17 05:13:00,41.2,6.2,30.06,WSW,244,2.7,3.1,23,0.00,,---,0.00,VWS V14.01,2013-12-17 12:13:00,
2013-12-17 05:14:00,41.2,6.2,30.06,SW,220,5.8,5.8,23,0.00,,---,0.00,VWS V14.01,2013-12-17 12:14:00,
2013-12-17 05:15:00,41.2,6.2,30.06,West,259,4.9,5.4,23,0.00,,---,0.00,VWS V14.01,2013-12-17 12:15:00,
2013-12-17 05:16:00,41.2,6.2,30.06,WSW,245,5.8,6.3,23,0.00,,---,0.00,VWS V14.01,2013-12-17 12:16:00,
2013-12-17 05:18:00,41.2,6.2,30.03,SSW,196,7.6,10.1,23,0.00,,---,0.00,VWS V14.01,2013-12-17 12:18:00,
2013-12-17 05:19:00,41.2,6.2,30.03,SSW,207,8.7,8.7,23,0.00,,---,0.00,VWS V14.01,2013-12-17 12:19:00,
2013-12-17 05:20:00,41.4,6.4,30.03,SSW,213,8.3,10.5,23,0.00,,---,0.00,VWS V14.01,2013-12-17 12:20:00,
2013-12-17 05:21:00,41.4,6.4,30.03,SW,234,5.8,5.8,23,0.00,,---,0.00,VWS V14.01,2013-12-17 12:21:00,
2013-12-17 05:23:00,41.5,6.5,30.03,WSW,253,3.6,5.8,23,0.00,,---,0.00,VWS V14.01,2013-12-17 12:23:00,
2013-12-17 05:24:00,41.5,6.5,30.03,SW,222,7.6,7.6,23,0.00,,---,0.00,VWS V14.01,2013-12-17 12:24:00,
2013-12-17 05:25:00,41.5,6.5,30.03,SW,229,5.8,6.3,23,0.00,,---,0.00,VWS V14.01,2013-12-17 12:25:00,
2013-12-17 05:26:00,41.4,6.4,30.03,West,264,5.4,5.4,23,0.00,,---,0.00,VWS V14.01,2013-12-17 12:26:00,
2013-12-17 05:28:00,41.2,6.2,30.03,WSW,238,7.6,7.6,23,0.00,,---,0.00,VWS V14.01,2013-12-17 12:28:00,
2013-12-17 05:29:00,41.2,6.2,30.03,WSW,245,5.8,6.3,23,0.00,,---,0.00,VWS V14.01,2013-12-17 12:29:00,
2013-12-17 05:30:00,41.0,6.1,30.03,West,260,5.8,8.1,23,0.00,,---,0.00,VWS V14.01,2013-12-17 12:30:00,
2013-12-17 05:31:00,41.0,6.1,30.03,SW,224,5.8,5.8,23,0.00,,---,0.00,VWS V14.01,2013-12-17 12:31:00,
2013-12-17 05:32:00,41.0,6.1,30.03,SSW,210,7.2,8.1,23,0.00,,---,0.00,VWS V14.01,2013-12-17 12:32:00,
2013-12-17 05:34:00,41.0,6.1,30.06,West,260,6.7,6.7,23,0.00,,---,0.00,VWS V14.01,2013-12-17 12:34:00,
2013-12-17 05:35:00,40.8,5.9,30.06,SW,230,5.4,5.8,23,0.00,,---,0.00,VWS V14.01,2013-12-17 12:35:00,
2013-12-17 05:37:00,40.8,5.9,30.06,WSW,249,5.8,5.8,23,0.00,,---,0.00,VWS V14.01,2013-12-17 12:37:00,
2013-12-17 05:39:00,40.6,5.8,30.06,WSW,244,5.4,5.8,23,0.00,,---,0.00,VWS V14.01,2013-12-17 12:39:00,
2013-12-17 05:40:00,40.6,5.8,30.06,SSW,211,5.8,5.8,23,0.00,,---,0.00,VWS V14.01,2013-12-17 12:40:00,
2013-12-17 05:42:00,40.5,5.6,30.06,WSW,239,5.4,8.7,23,0.00,,---,0.00,VWS V14.01,2013-12-17 12:42:00,
2013-12-17 05:44:00,40.6,5.8,30.06,SSW,209,5.8,5.8,23,0.00,,---,0.00,VWS V14.01,2013-12-17 12:44:00,
2013-12-17 05:45:00,40.6,5.8,30.06,SSW,213,7.6,8.1,23,0.00,,---,0.00,VWS V14.01,2013-12-17 12:45:00,
2013-12-17 05:47:00,40.6,5.8,30.03,SW,228,5.4,5.8,23,0.00,,---,0.00,VWS V14.01,2013-12-17 12:47:00,
2013-12-17 05:48:00,40.6,5.8,30.03,SW,228,5.8,5.8,23,0.00,,---,0.00,VWS V14.01,2013-12-17 12:48:00,
2013-12-17 05:49:00,40.6,5.8,30.03,WSW,243,6.3,6.3,23,0.00,,---,0.00,VWS V14.01,2013-12-17 12:49:00,
2013-12-17 05:50:00,40.6,5.8,30.03,SW,234,5.4,5.8,23,0.00,,---,0.00,VWS V14.01,2013-12-17 12:50:00,
2013-12-17 05:51:00,40.6,5.8,30.03,SW,232,4.9,5.4,23,0.00,,---,0.00,VWS V14.01,2013-12-17 12:51:00,
2013-12-17 05:53:00,40.6,5.8,30.03,SSW,203,7.6,7.6,23,0.00,,---,0.00,VWS V14.01,2013-12-17 12:53:00,
2013-12-17 05:54:00,40.6,5.8,30.03,SW,225,4.0,5.8,23,0.00,,---,0.00,VWS V14.01,2013-12-17 12:54:00,
2013-12-17 05:55:00,40.8,5.9,30.03,SW,228,5.8,8.1,23,0.00,,---,0.00,VWS V14.01,2013-12-17 12:55:00,
2013-12-17 05:56:00,40.8,5.9,30.03,SSW,197,11.0,11.0,23,0.00,,---,0.00,VWS V14.01,2013-12-17 12:56:00,
2013-12-17 05:58:00,41.0,6.1,30.03,SSW,203,8.3,8.3,23,0.00,,---,0.00,VWS V14.01,2013-12-17 12:58:00,
2013-12-17 05:59:00,41.0,6.1,30.03,WSW,253,6.3,6.3,23,0.00,,---,0.00,VWS V14.01,2013-12-17 12:59:00,
2013-12-17 06:00:00,41.0,6.1,30.03,WSW,248,5.8,5.8,23,0.00,,---,0.00,VWS V14.01,2013-12-17 13:00:00,
2013-12-17 06:01:00,41.0,6.1,30.03,SW,228,4.9,5.8,23,0.00,,---,0.00,VWS V14.01,2013-12-17 13:01:00,
2013-12-17 06:03:00,41.0,6.1,30.03,SW,225,5.4,5.4,23,0.00,,---,0.00,VWS V14.01,2013-12-17 13:03:00,
2013-12-17 06:04:00,41.0,6.1,30.03,SW,214,5.4,5.8,23,0.00,,---,0.00,VWS V14.01,2013-12-17 13:04:00,
2013-12-17 06:05:00,41.2,6.2,30.03,SSW,200,8.7,9.6,23,0.00,,---,0.00,VWS V14.01,2013-12-17 13:05:00,
2013-12-17 06:06:00,41.2,6.2,30.03,West,262,5.4,8.7,23,0.00,,---,0.00,VWS V14.01,2013-12-17 13:06:00,
2013-12-17 06:08:00,41.4,6.4,30.03,SSW,201,5.8,7.6,23,0.00,,---,0.00,VWS V14.01,2013-12-17 13:08:00,
2013-12-17 06:09:00,41.4,6.4,30.03,SSW,209,3.6,6.3,23,0.00,,---,0.00,VWS V14.01,2013-12-17 13:09:00,
2013-12-17 06:11:00,41.4,6.4,30.03,SSW,207,9.2,9.2,23,0.00,,---,0.00,VWS V14.01,2013-12-17 13:11:00,
2013-12-17 06:12:00,41.4,6.4,30.03,SW,221,5.8,5.8,23,0.00,,---,0.00,VWS V14.01,2013-12-17 13:12:00,
2013-12-17 06:13:00,41.4,6.4,30.03,SSW,197,5.8,6.3,23,0.00,,---,0.00,VWS V14.01,2013-12-17 13:13:00,
2013-12-17 06:14:00,41.5,6.5,30.03,SW,229,5.8,5.8,23,0.00,,---,0.00,VWS V14.01,2013-12-17 13:14:00,
2013-12-17 06:15:00,41.0,6.1,30.00,SSW,196,8.3,10.1,23,0.00,,,0.00,VWS V15.00,2013-12-17 13:15:00,
2013-12-17 06:16:00,41.5,6.5,30.03,SW,225,4.0,4.0,23,0.00,,---,0.00,VWS V14.01,2013-12-17 13:16:00,
2013-12-17 06:17:00,41.4,6.4,30.03,SSW,212,3.1,3.1,23,0.00,,---,0.00,VWS V14.01,2013-12-17 13:17:00,
2013-12-17 06:18:00,41.4,6.4,30.03,SSW,207,5.4,5.4,23,0.00,,---,0.00,VWS V14.01,2013-12-17 13:18:00,
2013-12-17 06:20:00,41.2,6.2,30.03,SW,220,4.0,4.0,23,0.00,,---,0.00,VWS V14.01,2013-12-17 13:20:00,
2013-12-17 06:21:00,41.2,6.2,30.03,WSW,254,3.6,3.6,23,0.00,,---,0.00,VWS V14.01,2013-12-17 13:21:00,
2013-12-17 06:22:00,41.2,6.2,30.03,WSW,251,2.2,2.7,23,0.00,,---,0.00,VWS V14.01,2013-12-17 13:22:00,
2013-12-17 06:24:00,41.0,6.1,30.03,SSW,208,2.7,3.6,23,0.00,,---,0.00,VWS V14.01,2013-12-17 13:24:00,
2013-12-17 06:25:00,41.0,6.1,30.03,SSW,208,0.0,0.0,23,0.00,,---,0.00,VWS V14.01,2013-12-17 13:25:00,
2013-12-17 06:26:00,41.0,6.1,30.03,South,186,3.6,3.6,23,0.00,,---,0.00,VWS V14.01,2013-12-17 13:26:00,
2013-12-17 06:27:00,40.8,5.9,30.03,SSW,203,5.4,5.4,23,0.00,,---,0.00,VWS V14.01,2013-12-17 13:27:00,
2013-12-17 06:30:00,40.8,5.9,30.03,SSW,197,3.6,3.6,23,0.00,,---,0.00,VWS V14.01,2013-12-17 13:30:00,
2013-12-17 06:31:00,40.6,5.8,30.03,SSW,203,2.7,2.7,23,0.00,,---,0.00,VWS V14.01,2013-12-17 13:31:00,
2013-12-17 06:32:00,40.6,5.8,30.03,South,180,4.0,6.3,23,0.00,,---,0.00,VWS V14.01,2013-12-17 13:32:00,
2013-12-17 06:35:00,40.5,5.6,30.03,SSW,211,4.0,4.9,23,0.00,,---,0.00,VWS V14.01,2013-12-17 13:35:00,
2013-12-17 06:36:00,40.5,5.6,30.03,SSW,200,3.1,4.0,23,0.00,,---,0.00,VWS V14.01,2013-12-17 13:36:00,
2013-12-17 06:37:00,40.5,5.6,30.03,SSW,213,3.1,3.6,23,0.00,,---,0.00,VWS V14.01,2013-12-17 13:37:00,
2013-12-17 06:40:00,40.3,5.4,30.03,SSW,199,5.4,5.4,23,0.00,,---,0.00,VWS V14.01,2013-12-17 13:40:00,
2013-12-17 06:41:00,40.3,5.4,30.03,SSW,204,5.4,6.7,23,0.00,,---,0.00,VWS V14.01,2013-12-17 13:41:00,
2013-12-17 06:42:00,40.3,5.4,30.03,SSW,210,8.1,8.1,23,0.00,,---,0.00,VWS V14.01,2013-12-17 13:42:00,
2013-12-17 06:45:00,40.3,5.4,30.03,SSW,199,4.5,8.3,23,0.00,,---,0.00,VWS V14.01,2013-12-17 13:45:00,
2013-12-17 06:47:00,40.3,5.4,30.03,SW,233,5.4,8.3,23,0.00,,---,0.00,VWS V14.01,2013-12-17 13:47:00,
2013-12-17 06:48:00,40.3,5.4,30.03,SSW,192,6.3,6.3,23,0.00,,---,0.00,VWS V14.01,2013-12-17 13:48:00,
2013-12-17 06:50:00,40.5,5.6,30.03,SW,220,6.3,6.3,23,0.00,,---,0.00,VWS V14.01,2013-12-17 13:50:00,
2013-12-17 06:52:00,40.3,5.4,30.03,SW,217,6.3,6.3,23,0.00,,---,0.00,VWS V14.01,2013-12-17 13:52:00,
2013-12-17 06:53:00,40.3,5.4,30.03,SSW,212,4.9,6.3,23,0.00,,---,0.00,VWS V14.01,2013-12-17 13:53:00,
2013-12-17 06:55:00,40.3,5.4,30.03,SW,216,11.0,11.0,23,0.00,,---,0.00,VWS V14.01,2013-12-17 13:55:00,
2013-12-17 06:57:00,40.5,5.6,30.03,SSW,209,6.3,7.6,23,0.00,,---,0.00,VWS V14.01,2013-12-17 13:57:00,
2013-12-17 06:58:00,40.5,5.6,30.03,SW,220,6.3,7.6,23,0.00,,---,0.00,VWS V14.01,2013-12-17 13:58:00,
2013-12-17 07:00:00,40.8,5.9,30.00,SSW,197,6.3,6.3,23,0.00,,,0.00,VWS V15.00,2013-12-17 14:00:00,
2013-12-17 07:01:00,40.6,5.8,30.03,SW,223,6.3,6.3,23,0.00,,---,0.00,VWS V14.01,2013-12-17 14:01:00,
2013-12-17 07:02:00,40.6,5.8,30.00,SW,228,5.4,6.3,23,0.00,,---,0.00,VWS V14.01,2013-12-17 14:02:00,
2013-12-17 07:03:00,40.8,5.9,30.00,SSW,204,6.7,6.7,23,0.00,,---,0.00,VWS V14.01,2013-12-17 14:03:00,
2013-12-17 07:07:00,40.8,5.9,30.00,SSW,202,8.3,8.3,23,0.00,,---,0.00,VWS V14.01,2013-12-17 14:07:00,
2013-12-17 07:08:00,40.8,5.9,30.00,SW,223,5.4,7.6,23,0.00,,---,0.00,VWS V14.01,2013-12-17 14:08:00,
2013-12-17 07:09:00,40.8,5.9,30.00,SW,224,4.0,8.1,23,0.00,,---,0.00,VWS V14.01,2013-12-17 14:09:00,
2013-12-17 07:12:00,40.8,5.9,30.00,SW,220,8.3,8.7,23,0.00,,---,0.00,VWS V14.01,2013-12-17 14:12:00,
2013-12-17 07:13:00,40.8,5.9,30.00,SSW,204,7.2,8.3,23,0.00,,---,0.00,VWS V14.01,2013-12-17 14:13:00,
2013-12-17 07:14:00,40.8,5.9,30.00,SSW,205,4.0,5.8,23,0.00,,---,0.00,VWS V14.01,2013-12-17 14:14:00,
2013-12-17 07:15:00,40.6,5.8,30.00,SSW,213,7.6,7.6,23,0.00,,,0.00,VWS V15.00,2013-12-17 14:15:00,
2013-12-17 07:17:00,40.8,5.9,30.00,SSW,192,6.3,6.3,23,0.00,,---,0.00,VWS V14.01,2013-12-17 14:17:00,
2013-12-17 07:18:00,40.8,5.9,30.00,SSE,162,8.7,8.7,23,0.00,,---,0.00,VWS V14.01,2013-12-17 14:18:00,
2013-12-17 07:19:00,40.8,5.9,30.00,SSW,198,11.0,11.0,23,0.00,,---,0.00,VWS V14.01,2013-12-17 14:19:00,
2013-12-17 07:23:00,40.6,5.8,30.00,SSW,209,5.8,8.7,23,0.00,,---,0.00,VWS V14.01,2013-12-17 14:23:00,
2013-12-17 07:24:00,40.6,5.8,30.00,SSW,204,8.3,8.3,23,0.00,,---,0.00,VWS V14.01,2013-12-17 14:24:00,
2013-12-17 07:28:00,40.8,5.9,30.00,SSW,206,5.4,5.4,23,0.00,,---,0.00,VWS V14.01,2013-12-17 14:28:00,
2013-12-17 07:29:00,40.8,5.9,30.00,SSW,206,5.4,5.4,23,0.00,,---,0.00,VWS V14.01,2013-12-17 14:29:00,
2013-12-17 07:30:00,41.2,4.2,30.00,SSW,204,5.4,6.3,21,0.00,,,0.00,VWS V15.00,2013-12-17 14:30:00,
2013-12-17 07:32:00,40.8,5.9,30.00,SW,227,5.4,8.7,23,0.00,,---,0.00,VWS V14.01,2013-12-17 14:32:00,
2013-12-17 07:34:00,40.8,5.9,30.00,WSW,237,4.0,6.3,23,0.00,,---,0.00,VWS V14.01,2013-12-17 14:34:00,
2013-12-17 07:35:00,40.8,5.9,30.00,SSW,194,5.8,5.8,23,0.00,,---,0.00,VWS V14.01,2013-12-17 14:35:00,
2013-12-17 07:37:00,41.0,6.1,30.00,SW,214,5.4,7.6,23,0.00,,---,0.00,VWS V14.01,2013-12-17 14:37:00,
2013-12-17 07:39:00,41.0,6.1,30.00,South,187,4.9,5.8,23,0.00,,---,0.00,VWS V14.01,2013-12-17 14:39:00,
2013-12-17 07:40:00,41.0,6.1,30.00,SSW,209,5.8,6.3,23,0.00,,---,0.00,VWS V14.01,2013-12-17 14:40:00,
2013-12-17 07:42:00,41.0,6.1,30.00,SW,222,4.0,5.4,23,0.00,,---,0.00,VWS V14.01,2013-12-17 14:42:00,
2013-12-17 07:44:00,40.8,5.9,30.00,SSW,194,6.3,7.6,23,0.00,,---,0.00,VWS V14.01,2013-12-17 14:44:00,
2013-12-17 07:45:00,40.8,5.9,30.00,SSW,193,5.4,5.4,23,0.00,,---,0.00,VWS V14.01,2013-12-17 14:45:00,
2013-12-17 07:47:00,40.8,5.9,30.00,SSW,206,4.9,4.9,23,0.00,,---,0.00,VWS V14.01,2013-12-17 14:47:00,
2013-12-17 07:49:00,40.8,5.9,30.00,SSW,203,5.4,6.7,23,0.00,,---,0.00,VWS V14.01,2013-12-17 14:49:00,
2013-12-17 07:50:00,40.8,5.9,30.00,SSW,195,6.3,8.3,23,0.00,,---,0.00,VWS V14.01,2013-12-17 14:50:00,
2013-12-17 07:52:00,40.8,5.9,30.00,SSW,200,5.8,8.1,23,0.00,,---,0.00,VWS V14.01,2013-12-17 14:52:00,
2013-12-17 07:54:00,40.8,5.9,30.00,SW,216,4.0,5.8,23,0.00,,---,0.00,VWS V14.01,2013-12-17 14:54:00,
2013-12-17 07:55:00,40.8,5.9,30.00,SSW,213,6.3,6.3,23,0.00,,---,0.00,VWS V14.01,2013-12-17 14:55:00,
2013-12-17 07:57:00,40.8,5.9,30.00,SSW,206,5.4,6.3,23,0.00,,---,0.00,VWS V14.01,2013-12-17 14:57:00,
2013-12-17 07:59:00,40.8,5.9,30.00,SSW,205,5.8,7.6,23,0.00,,---,0.00,VWS V14.01,2013-12-17 14:59:00,
2013-12-17 08:00:00,40.8,5.9,30.00,SSW,197,6.3,6.3,23,0.00,,---,0.00,VWS V14.01,2013-12-17 15:00:00,
2013-12-17 08:01:00,40.8,5.9,30.00,SSW,208,8.1,8.7,23,0.00,,---,0.00,VWS V14.01,2013-12-17 15:01:00,
2013-12-17 08:02:00,40.6,5.8,30.00,SW,214,4.0,4.0,23,0.00,,---,0.00,VWS V14.01,2013-12-17 15:02:00,
2013-12-17 08:05:00,40.6,5.8,30.00,SW,214,4.9,5.4,23,0.00,,---,0.00,VWS V14.01,2013-12-17 15:05:00,
2013-12-17 08:06:00,40.6,5.8,30.00,SSW,208,3.1,4.9,23,0.00,,---,0.00,VWS V14.01,2013-12-17 15:06:00,
2013-12-17 08:08:00,40.6,5.8,30.00,SW,223,11.0,11.0,23,0.00,,---,0.00,VWS V14.01,2013-12-17 15:08:00,
2013-12-17 08:10:00,40.5,5.6,30.00,SW,220,6.3,7.2,23,0.00,,---,0.00,VWS V14.01,2013-12-17 15:10:00,
2013-12-17 08:11:00,40.6,5.8,30.00,SSW,201,8.3,8.3,23,0.00,,---,0.00,VWS V14.01,2013-12-17 15:11:00,
2013-12-17 08:13:00,40.6,5.8,30.00,SSW,194,3.6,8.3,23,0.00,,---,0.00,VWS V14.01,2013-12-17 15:13:00,
2013-12-17 08:15:00,40.6,5.8,30.00,SSW,213,7.6,7.6,23,0.00,,---,0.00,VWS V14.01,2013-12-17 15:15:00,
2013-12-17 08:16:00,40.6,5.8,30.00,SSW,213,6.3,6.3,23,0.00,,---,0.00,VWS V14.01,2013-12-17 15:16:00,
2013-12-17 08:18:00,40.6,5.8,30.00,SW,219,6.3,6.3,23,0.00,,---,0.00,VWS V14.01,2013-12-17 15:18:00,
2013-12-17 08:20:00,40.6,5.8,30.00,SSW,202,8.1,8.1,23,0.00,,---,0.00,VWS V14.01,2013-12-17 15:20:00,
2013-12-17 08:21:00,40.6,5.8,30.00,SSW,205,8.3,8.3,23,0.00,,---,0.00,VWS V14.01,2013-12-17 15:21:00,
2013-12-17 08:23:00,40.8,3.9,30.00,SSW,206,7.6,7.6,21,0.00,,---,0.00,VWS V14.01,2013-12-17 15:23:00,
2013-12-17 08:25:00,41.0,6.1,30.00,SSW,204,5.8,5.8,23,0.00,,---,0.00,VWS V14.01,2013-12-17 15:25:00,
2013-12-17 08:26:00,41.0,4.1,30.00,SW,226,5.8,5.8,21,0.00,,---,0.00,VWS V14.01,2013-12-17 15:26:00,
2013-12-17 08:28:00,41.0,6.1,30.00,SSW,198,4.0,6.3,23,0.00,,---,0.00,VWS V14.01,2013-12-17 15:28:00,
2013-12-17 08:30:00,41.2,4.2,30.00,SSW,204,5.4,6.3,21,0.00,,---,0.00,VWS V14.01,2013-12-17 15:30:00,
2013-12-17 08:31:00,41.2,4.2,30.00,SSW,211,4.0,5.8,21,0.00,,---,0.00,VWS V14.01,2013-12-17 15:31:00,
2013-12-17 08:32:00,41.2,6.2,30.00,SSW,207,5.8,5.8,23,0.00,,---,0.00,VWS V14.01,2013-12-17 15:32:00,
2013-12-17 08:33:00,41.2,6.2,30.00,SSW,195,6.3,7.6,23,0.00,,---,0.00,VWS V14.01,2013-12-17 15:33:00,
2013-12-17 08:35:00,41.2,6.2,30.00,SSW,200,4.0,6.3,23,0.00,,---,0.00,VWS V14.01,2013-12-17 15:35:00,
2013-12-17 08:36:00,41.2,6.2,30.00,SSW,205,4.0,5.4,23,0.00,,---,0.00,VWS V14.01,2013-12-17 15:36:00,
2013-12-17 08:37:00,41.2,6.2,30.00,SSW,200,5.4,6.3,23,0.00,,---,0.00,VWS V14.01,2013-12-17 15:37:00,
2013-12-17 08:38:00,41.2,6.2,30.00,SSW,199,6.3,6.3,23,0.00,,---,0.00,VWS V14.01,2013-12-17 15:38:00,
2013-12-17 08:40:00,41.0,4.1,30.00,SSW,212,7.6,8.3,21,0.00,,---,0.00,VWS V14.01,2013-12-17 15:40:00,
2013-12-17 08:41:00,41.2,6.2,30.00,SSW,196,5.8,7.6,23,0.00,,---,0.00,VWS V14.01,2013-12-17 15:41:00,
2013-12-17 08:42:00,41.2,6.2,30.00,SSW,198,7.6,7.6,23,0.00,,---,0.00,VWS V14.01,2013-12-17 15:42:00,
2013-12-17 08:43:00,41.4,4.4,30.00,South,187,7.6,7.6,21,0.00,,---,0.00,VWS V14.01,2013-12-17 15:43:00,
2013-12-17 08:45:00,41.5,6.5,30.00,SW,220,8.1,8.3,23,0.00,,---,0.00,VWS V14.01,2013-12-17 15:45:00,
2013-12-17 08:46:00,41.5,4.5,30.00,SSW,199,5.8,7.6,21,0.00,,---,0.00,VWS V14.01,2013-12-17 15:46:00,
2013-12-17 08:47:00,41.5,4.5,30.00,SSW,210,6.3,6.3,21,0.00,,---,0.00,VWS V14.01,2013-12-17 15:47:00,
2013-12-17 08:48:00,41.7,6.7,30.00,SW,221,8.1,8.7,23,0.00,,---,0.00,VWS V14.01,2013-12-17 15:48:00,
2013-12-17 08:50:00,41.7,4.7,30.00,SW,214,6.3,8.1,21,0.00,,---,0.00,VWS V14.01,2013-12-17 15:50:00,
2013-12-17 08:51:00,41.7,4.7,30.00,SSW,192,8.1,8.1,21,0.00,,---,0.00,VWS V14.01,2013-12-17 15:51:00,
2013-12-17 08:52:00,41.7,4.7,30.00,SSW,192,8.1,8.1,21,0.00,,---,0.00,VWS V14.01,2013-12-17 15:52:00,
2013-12-17 08:53:00,41.7,4.7,30.00,SSW,199,8.1,8.3,21,0.00,,---,0.00,VWS V14.01,2013-12-17 15:53:00,
2013-12-17 08:55:00,41.7,4.7,30.00,SW,222,5.8,8.7,21,0.00,,---,0.00,VWS V14.01,2013-12-17 15:55:00,
2013-12-17 08:56:00,41.7,4.7,30.00,SSW,204,5.8,10.5,21,0.00,,---,0.00,VWS V14.01,2013-12-17 15:56:00,
2013-12-17 08:57:00,41.7,4.7,30.00,SW,222,6.3,6.3,21,0.00,,---,0.00,VWS V14.01,2013-12-17 15:57:00,
2013-12-17 08:58:00,41.7,4.7,30.00,SW,230,4.9,5.8,21,0.00,,---,0.00,VWS V14.01,2013-12-17 15:58:00,
2013-12-17 09:00:00,41.9,4.8,30.00,SW,218,8.1,10.5,21,0.00,,---,0.00,VWS V14.01,2013-12-17 16:00:00,
2013-12-17 09:02:00,42.1,5.0,30.00,SW,220,5.8,8.3,21,0.00,,---,0.00,VWS V14.01,2013-12-17 16:02:00,
2013-12-17 09:03:00,42.1,5.0,30.00,SW,222,6.3,7.6,21,0.00,,---,0.00,VWS V14.01,2013-12-17 16:03:00,
2013-12-17 09:05:00,42.1,5.0,30.00,SSW,202,7.2,8.1,21,0.00,,---,0.00,VWS V14.01,2013-12-17 16:05:00,
2013-12-17 09:07:00,42.1,5.0,30.00,SSW,213,8.1,8.1,21,0.00,,---,0.00,VWS V14.01,2013-12-17 16:07:00,
2013-12-17 09:08:00,42.3,5.1,30.00,SW,220,8.7,10.1,21,0.00,,---,0.00,VWS V14.01,2013-12-17 16:08:00,
2013-12-17 09:10:00,42.3,5.1,30.00,SW,233,6.3,8.3,21,0.00,,---,0.00,VWS V14.01,2013-12-17 16:10:00,
2013-12-17 09:12:00,42.1,5.0,30.00,WSW,237,5.8,5.8,21,0.00,,---,0.00,VWS V14.01,2013-12-17 16:12:00,
2013-12-17 09:13:00,42.1,5.0,30.00,SSW,196,5.4,5.8,21,0.00,,---,0.00,VWS V14.01,2013-12-17 16:13:00,
2013-12-17 09:15:00,42.1,5.0,30.00,South,179,5.4,9.6,21,0.00,,---,0.00,VWS V14.01,2013-12-17 16:15:00,
2013-12-17 09:17:00,42.3,5.1,30.00,SW,214,5.4,6.3,21,0.00,,---,0.00,VWS V14.01,2013-12-17 16:17:00,
2013-12-17 09:18:00,42.3,5.1,30.00,SSW,204,5.4,6.7,21,0.00,,---,0.00,VWS V14.01,2013-12-17 16:18:00,
2013-12-17 09:19:00,42.1,5.0,30.00,SW,226,5.8,7.6,21,0.00,,---,0.00,VWS V14.01,2013-12-17 16:19:00,
2013-12-17 09:21:00,42.3,5.1,30.00,SW,221,8.7,8.7,21,0.00,,---,0.00,VWS V14.01,2013-12-17 16:21:00,
2013-12-17 09:22:00,42.3,5.1,30.00,SSW,196,6.3,8.7,21,0.00,,---,0.00,VWS V14.01,2013-12-17 16:22:00,
2013-12-17 09:23:00,42.3,5.1,30.00,SW,218,5.8,5.8,21,0.00,,---,0.00,VWS V14.01,2013-12-17 16:23:00,
2013-12-17 09:24:00,42.3,5.1,30.00,SSW,202,7.6,7.6,21,0.00,,---,0.00,VWS V14.01,2013-12-17 16:24:00,
2013-12-17 09:26:00,42.3,5.1,30.00,WSW,240,5.8,11.0,21,0.00,,---,0.00,VWS V14.01,2013-12-17 16:26:00,
2013-12-17 09:27:00,42.3,5.1,30.00,SW,214,5.4,7.6,21,0.00,,---,0.00,VWS V14.01,2013-12-17 16:27:00,
2013-12-17 09:29:00,42.4,5.3,30.00,SW,216,5.4,5.8,21,0.00,,---,0.00,VWS V14.01,2013-12-17 16:29:00,
2013-12-17 09:30:00,42.4,5.3,30.00,SW,219,8.1,8.1,21,0.00,,---,0.00,VWS V14.01,2013-12-17 16:30:00,
2013-12-17 09:31:00,42.4,5.3,30.00,SSW,204,5.8,7.6,21,0.00,,---,0.00,VWS V14.01,2013-12-17 16:31:00,
2013-12-17 09:32:00,42.6,5.4,30.00,SSW,205,8.1,8.3,21,0.00,,---,0.00,VWS V14.01,2013-12-17 16:32:00,
2013-12-17 09:34:00,42.6,5.4,30.00,WSW,243,8.1,8.1,21,0.00,,---,0.00,VWS V14.01,2013-12-17 16:34:00,
2013-12-17 09:36:00,42.6,5.4,30.00,SSW,199,10.5,10.5,21,0.00,,---,0.00,VWS V14.01,2013-12-17 16:36:00,
2013-12-17 09:38:00,42.4,5.3,30.00,SSW,199,8.3,8.3,21,0.00,,---,0.00,VWS V14.01,2013-12-17 16:38:00,
2013-12-17 09:39:00,42.6,5.4,30.00,SW,217,6.7,7.6,21,0.00,,---,0.00,VWS V14.01,2013-12-17 16:39:00,
2013-12-17 09:40:00,42.6,5.4,30.00,SW,227,6.3,6.7,21,0.00,,---,0.00,VWS V14.01,2013-12-17 16:40:00,
2013-12-17 09:41:00,42.6,5.4,30.00,SW,226,5.4,5.4,21,0.00,,---,0.00,VWS V14.01,2013-12-17 16:41:00,
2013-12-17 09:43:00,42.6,5.4,30.00,SW,217,5.4,7.6,21,0.00,,---,0.00,VWS V14.01,2013-12-17 16:43:00,
2013-12-17 09:44:00,42.8,4.5,30.00,SSW,200,8.1,8.1,20,0.00,,---,0.00,VWS V14.01,2013-12-17 16:44:00,
2013-12-17 09:45:00,42.8,4.5,30.00,SSW,202,8.3,8.3,20,0.00,,---,0.00,VWS V14.01,2013-12-17 16:45:00,
2013-12-17 09:46:00,43.0,4.7,30.00,SSW,207,8.1,8.1,20,0.00,,---,0.00,VWS V14.01,2013-12-17 16:46:00,
2013-12-17 09:48:00,43.2,4.8,30.00,SW,217,8.1,8.3,20,0.00,,---,0.00,VWS V14.01,2013-12-17 16:48:00,
2013-12-17 09:49:00,43.3,5.0,30.00,SSW,208,6.3,6.3,20,0.00,,---,0.00,VWS V14.01,2013-12-17 16:49:00,
2013-12-17 09:51:00,43.5,5.1,30.00,WSW,237,6.3,6.3,20,0.00,,---,0.00,VWS V14.01,2013-12-17 16:51:00,
2013-12-17 09:53:00,43.7,5.3,30.00,SW,231,5.4,5.4,20,0.00,,---,0.00,VWS V14.01,2013-12-17 16:53:00,
2013-12-17 09:54:00,44.1,5.6,30.00,SSW,200,8.7,8.7,20,0.00,,---,0.00,VWS V14.01,2013-12-17 16:54:00,
2013-12-17 09:56:00,44.1,5.6,30.00,SSW,207,8.3,8.3,20,0.00,,---,0.00,VWS V14.01,2013-12-17 16:56:00,
2013-12-17 09:57:00,44.6,6.0,30.00,SSW,209,5.8,6.3,20,0.00,,---,0.00,VWS V14.01,2013-12-17 16:57:00,
2013-12-17 09:58:00,44.8,6.2,30.00,SW,225,5.8,5.8,20,0.00,,---,0.00,VWS V14.01,2013-12-17 16:58:00,
2013-12-17 09:59:00,45.0,6.3,30.00,SW,226,7.6,8.7,20,0.00,,---,0.00,VWS V14.01,2013-12-17 16:59:00,
2013-12-17 10:00:00,45.0,6.3,30.00,SW,218,6.3,6.3,20,0.00,,---,0.00,VWS V14.01,2013-12-17 17:00:00,
2013-12-17 10:01:00,45.1,6.5,30.00,WSW,254,3.6,8.1,20,0.00,,---,0.00,VWS V14.01,2013-12-17 17:01:00,
2013-12-17 10:02:00,45.1,6.5,29.97,WSW,241,3.1,4.9,20,0.00,,---,0.00,VWS V14.01,2013-12-17 17:02:00,
2013-12-17 10:03:00,45.1,6.5,29.97,WSW,242,5.4,6.3,20,0.00,,---,0.00,VWS V14.01,2013-12-17 17:03:00,
2013-12-17 10:05:00,45.1,6.5,29.97,WSW,247,5.8,5.8,20,0.00,,---,0.00,VWS V14.01,2013-12-17 17:05:00,
2013-12-17 10:06:00,45.1,6.5,29.97,WSW,249,4.9,4.9,20,0.00,,---,0.00,VWS V14.01,2013-12-17 17:06:00,
2013-12-17 10:08:00,45.1,6.5,29.97,SSW,213,6.3,6.3,20,0.00,,---,0.00,VWS V14.01,2013-12-17 17:08:00,
2013-12-17 10:10:00,45.1,6.5,29.97,SW,216,4.9,4.9,20,0.00,,---,0.00,VWS V14.01,2013-12-17 17:10:00,
2013-12-17 10:11:00,45.1,6.5,29.97,SW,229,3.6,3.6,20,0.00,,---,0.00,VWS V14.01,2013-12-17 17:11:00,
2013-12-17 10:13:00,45.3,6.6,29.97,SW,225,3.6,3.6,20,0.00,,---,0.00,VWS V14.01,2013-12-17 17:13:00,
2013-12-17 10:15:00,45.9,7.1,29.97,West,268,4.0,5.8,20,0.00,,---,0.00,VWS V14.01,2013-12-17 17:15:00,
2013-12-17 10:16:00,46.0,7.2,29.97,West,264,3.1,3.1,20,0.00,,---,0.00,VWS V14.01,2013-12-17 17:16:00,
2013-12-17 10:17:00,46.0,7.2,29.97,West,265,2.7,3.1,20,0.00,,---,0.00,VWS V14.01,2013-12-17 17:17:00,
2013-12-17 10:18:00,46.4,6.4,29.97,West,262,2.7,3.1,19,0.00,,---,0.00,VWS V14.01,2013-12-17 17:18:00,
2013-12-17 10:19:00,46.4,6.4,29.97,West,260,0.0,3.6,19,0.00,,---,0.00,VWS V14.01,2013-12-17 17:19:00,
2013-12-17 10:20:00,46.6,6.5,29.97,SW,236,5.8,5.8,19,0.00,,---,0.00,VWS V14.01,2013-12-17 17:20:00,
2013-12-17 10:21:00,46.9,6.8,29.97,SSW,193,8.1,8.1,19,0.00,,---,0.00,VWS V14.01,2013-12-17 17:21:00,
2013-12-17 10:22:00,46.9,6.8,29.97,SW,215,6.3,8.1,19,0.00,,---,0.00,VWS V14.01,2013-12-17 17:22:00,
2013-12-17 10:23:00,47.3,7.1,29.97,SSW,201,7.6,7.6,19,0.00,,---,0.00,VWS V14.01,2013-12-17 17:23:00,
2013-12-17 10:24:00,47.5,7.3,29.97,WSW,242,3.6,4.0,19,0.00,,---,0.00,VWS V14.01,2013-12-17 17:24:00,
2013-12-17 10:25:00,47.7,7.4,29.97,West,278,4.0,4.0,19,0.00,,---,0.00,VWS V14.01,2013-12-17 17:25:00,
2013-12-17 10:27:00,48.0,7.7,29.97,SSW,202,4.0,4.0,19,0.00,,---,0.00,VWS V14.01,2013-12-17 17:27:00,
2013-12-17 10:28:00,48.2,7.9,29.97,WSW,241,2.7,2.7,19,0.00,,---,0.00,VWS V14.01,2013-12-17 17:28:00,
2013-12-17 10:29:00,48.2,7.9,29.97,SE,145,2.2,2.2,19,0.00,,---,0.00,VWS V14.01,2013-12-17 17:29:00,
2013-12-17 10:30:00,48.4,8.0,29.97,SSW,201,5.4,5.4,19,0.00,,---,0.00,VWS V14.01,2013-12-17 17:30:00,
2013-12-17 10:32:00,48.6,8.2,29.97,West,279,6.3,6.3,19,0.00,,---,0.00,VWS V14.01,2013-12-17 17:32:00,
2013-12-17 10:34:00,48.7,8.3,29.97,SSW,203,7.6,7.6,19,0.00,,---,0.00,VWS V14.01,2013-12-17 17:34:00,
2013-12-17 10:36:00,49.1,4.9,29.97,West,270,3.6,3.6,16,0.00,,---,0.00,VWS V14.01,2013-12-17 17:36:00,
2013-12-17 10:37:00,49.1,4.9,29.97,West,276,3.6,4.0,16,0.00,,---,0.00,VWS V14.01,2013-12-17 17:37:00,
2013-12-17 10:39:00,49.1,8.6,29.97,WSW,250,2.7,3.6,19,0.00,,---,0.00,VWS V14.01,2013-12-17 17:39:00,
2013-12-17 10:41:00,48.9,8.5,29.97,NE,37,4.0,4.0,19,0.00,,---,0.00,VWS V14.01,2013-12-17 17:41:00,
2013-12-17 10:42:00,48.9,8.5,29.97,ENE,60,0.0,5.4,19,0.00,,---,0.00,VWS V14.01,2013-12-17 17:42:00,
2013-12-17 10:44:00,47.5,7.3,29.97,North,6,4.9,4.9,19,0.00,,---,0.00,VWS V14.01,2013-12-17 17:44:00,
2013-12-17 10:45:00,46.8,6.7,29.97,NNW,340,3.1,4.9,19,0.00,,---,0.00,VWS V14.01,2013-12-17 17:45:00,
2013-12-17 10:46:00,45.9,7.1,29.97,SSW,196,5.8,5.8,20,0.00,,---,0.00,VWS V14.01,2013-12-17 17:46:00,
2013-12-17 10:47:00,45.3,6.6,29.97,SW,217,7.6,8.7,20,0.00,,---,0.00,VWS V14.01,2013-12-17 17:47:00,
2013-12-17 10:49:00,46.0,7.2,29.97,WNW,299,4.9,5.4,20,0.00,,---,0.00,VWS V14.01,2013-12-17 17:49:00,
2013-12-17 10:50:00,46.4,6.4,29.97,West,266,3.1,5.8,19,0.00,,---,0.00,VWS V14.01,2013-12-17 17:50:00,
2013-12-17 10:51:00,47.1,7.0,29.97,WNW,284,4.0,4.0,19,0.00,,---,0.00,VWS V14.01,2013-12-17 17:51:00,
2013-12-17 10:52:00,47.1,7.0,29.97,SW,235,2.7,4.0,19,0.00,,---,0.00,VWS V14.01,2013-12-17 17:52:00,
2013-12-17 10:54:00,47.7,7.4,29.97,NW,324,4.0,6.3,19,0.00,,---,0.00,VWS V14.01,2013-12-17 17:54:00,
2013-12-17 10:55:00,47.7,7.4,29.97,WNW,301,4.0,4.5,19,0.00,,---,0.00,VWS V14.01,2013-12-17 17:55:00,
2013-12-17 10:56:00,47.7,7.4,29.97,NW,321,2.7,3.1,19,0.00,,---,0.00,VWS V14.01,2013-12-17 17:56:00,
2013-12-17 10:57:00,47.5,7.3,29.97,WNW,291,2.2,3.1,19,0.00,,---,0.00,VWS V14.01,2013-12-17 17:57:00,
2013-12-17 10:59:00,47.5,7.3,29.97,SSE,149,0.0,2.7,19,0.00,,---,0.00,VWS V14.01,2013-12-17 17:59:00,
2013-12-17 11:00:00,47.3,7.1,29.97,SE,138,0.0,0.0,19,0.00,,---,0.00,VWS V14.01,2013-12-17 18:00:00,
2013-12-17 11:02:00,46.9,10.1,29.97,South,176,2.2,5.8,22,0.00,,---,0.00,VWS V14.01,2013-12-17 18:02:00,
2013-12-17 11:03:00,46.6,6.5,29.97,South,176,0.0,0.0,19,0.00,,---,0.00,VWS V14.01,2013-12-17 18:03:00,
2013-12-17 11:04:00,46.2,9.5,29.97,SSE,157,3.6,3.6,22,0.00,,---,0.00,VWS V14.01,2013-12-17 18:04:00,
2013-12-17 11:05:00,46.2,9.5,29.97,ENE,65,0.0,0.0,22,0.00,,---,0.00,VWS V14.01,2013-12-17 18:05:00,
2013-12-17 11:07:00,45.7,9.0,29.97,ESE,115,0.0,0.0,22,0.00,,---,0.00,VWS V14.01,2013-12-17 18:07:00,
2013-12-17 11:08:00,45.3,8.7,29.97,ESE,117,0.0,0.0,22,0.00,,---,0.00,VWS V14.01,2013-12-17 18:08:00,
2013-12-17 11:09:00,45.1,8.6,29.97,SSE,153,0.0,0.0,22,0.00,,---,0.00,VWS V14.01,2013-12-17 18:09:00,
2013-12-17 11:10:00,45.0,8.4,29.97,ESE,123,3.1,3.1,22,0.00,,---,0.00,VWS V14.01,2013-12-17 18:10:00,
2013-12-17 11:12:00,44.6,8.1,29.97,ENE,68,0.0,3.6,22,0.00,,---,0.00,VWS V14.01,2013-12-17 18:12:00,
2013-12-17 11:13:00,44.4,8.9,29.97,NE,53,0.0,3.6,23,0.00,,---,0.00,VWS V14.01,2013-12-17 18:13:00,
2013-12-17 11:14:00,43.9,8.5,29.97,North,7,3.6,3.6,23,0.00,,---,0.00,VWS V14.01,2013-12-17 18:14:00,
2013-12-17 11:15:00,43.5,8.2,29.97,NNE,17,4.0,4.0,23,0.00,,---,0.00,VWS V14.01,2013-12-17 18:15:00,
2013-12-17 11:17:00,42.8,7.6,29.97,NNE,28,4.0,4.0,23,0.00,,---,0.00,VWS V14.01,2013-12-17 18:17:00,
2013-12-17 11:18:00,42.4,7.3,29.97,NNE,31,4.0,5.4,23,0.00,,---,0.00,VWS V14.01,2013-12-17 18:18:00,
2013-12-17 11:20:00,41.7,6.7,29.97,North,11,4.0,4.0,23,0.00,,---,0.00,VWS V14.01,2013-12-17 18:20:00,
2013-12-17 11:23:00,40.6,8.4,29.97,North,3,4.0,4.0,26,0.00,,---,0.00,VWS V14.01,2013-12-17 18:23:00,
2013-12-17 11:25:00,40.5,8.3,29.97,North,357,2.7,3.1,26,0.00,,---,0.00,VWS V14.01,2013-12-17 18:25:00,
2013-12-17 11:28:00,39.9,7.8,29.97,North,9,2.7,3.6,26,0.00,,---,0.00,VWS V14.01,2013-12-17 18:28:00,
2013-12-17 11:30:00,52.2,7.3,29.94,SSW,199,6.7,6.7,16,0.00,,,0.00,VWS V15.00,2013-12-17 18:30:00,
2013-12-17 11:31:00,39.9,7.8,29.97,North,9,0.0,0.0,26,0.00,,---,0.00,VWS V14.01,2013-12-17 18:31:00,
2013-12-17 11:33:00,40.1,8.0,29.97,North,9,0.0,0.0,26,0.00,,---,0.00,VWS V14.01,2013-12-17 18:33:00,
2013-12-17 11:36:00,40.6,10.1,29.97,North,10,3.1,3.6,28,0.00,,---,0.00,VWS V14.01,2013-12-17 18:36:00,
2013-12-17 11:38:00,40.8,10.2,29.97,North,10,2.7,3.1,28,0.00,,---,0.00,VWS V14.01,2013-12-17 18:38:00,
2013-12-17 11:39:00,40.8,10.2,29.97,North,10,3.1,3.1,28,0.00,,---,0.00,VWS V14.01,2013-12-17 18:39:00,
2013-12-17 11:41:00,41.0,8.8,29.97,NNE,17,0.0,2.7,26,0.00,,---,0.00,VWS V14.01,2013-12-17 18:41:00,
2013-12-17 11:42:00,41.2,10.6,29.97,NNE,17,2.7,2.7,28,0.00,,---,0.00,VWS V14.01,2013-12-17 18:42:00,
2013-12-17 11:43:00,41.4,10.7,29.97,NNE,31,4.9,5.4,28,0.00,,---,0.00,VWS V14.01,2013-12-17 18:43:00,
2013-12-17 11:44:00,41.4,10.7,29.97,ENE,77,0.0,4.9,28,0.00,,---,0.00,VWS V14.01,2013-12-17 18:44:00,
2013-12-17 11:45:00,41.5,10.9,29.97,NE,54,0.0,0.0,28,0.00,,---,0.00,VWS V14.01,2013-12-17 18:45:00,
2013-12-17 11:46:00,41.7,11.0,29.97,NNE,27,0.0,0.0,28,0.00,,---,0.00,VWS V14.01,2013-12-17 18:46:00,
2013-12-17 11:47:00,41.7,11.0,29.97,NNE,27,0.0,0.0,28,0.00,,---,0.00,VWS V14.01,2013-12-17 18:47:00,
2013-12-17 11:48:00,41.7,11.0,29.94,NNE,21,4.0,4.0,28,0.00,,---,0.00,VWS V14.01,2013-12-17 18:48:00,
2013-12-17 11:49:00,41.9,11.2,29.94,North,4,4.0,4.0,28,0.00,,---,0.00,VWS V14.01,2013-12-17 18:49:00,
2013-12-17 11:50:00,42.1,11.3,29.94,North,7,5.4,5.4,28,0.00,,---,0.00,VWS V14.01,2013-12-17 18:50:00,
2013-12-17 11:51:00,42.1,11.3,29.94,North,11,0.0,0.0,28,0.00,,---,0.00,VWS V14.01,2013-12-17 18:51:00,
2013-12-17 11:52:00,42.1,11.3,29.94,North,11,0.0,0.0,28,0.00,,---,0.00,VWS V14.01,2013-12-17 18:52:00,
2013-12-17 11:54:00,42.3,9.8,29.94,SW,214,5.4,5.4,26,0.00,,---,0.00,VWS V14.01,2013-12-17 18:54:00,
2013-12-17 11:55:00,42.6,11.8,29.94,South,185,4.0,4.0,28,0.00,,---,0.00,VWS V14.01,2013-12-17 18:55:00,
2013-12-17 11:57:00,43.5,10.0,29.94,SSW,192,2.2,4.0,25,0.00,,---,0.00,VWS V14.01,2013-12-17 18:57:00,
2013-12-17 11:59:00,44.6,12.7,29.94,SSW,198,2.7,2.7,27,0.00,,---,0.00,VWS V14.01,2013-12-17 18:59:00,
2013-12-17 12:00:00,45.1,13.2,29.94,South,184,0.0,2.7,27,0.00,,---,0.00,VWS V14.01,2013-12-17 19:00:00,
2013-12-17 12:02:00,45.9,9.2,29.94,South,187,5.4,6.3,22,0.00,,---,0.00,VWS V14.01,2013-12-17 19:02:00,
2013-12-17 12:04:00,46.0,9.3,29.94,SSW,195,3.1,3.1,22,0.00,,---,0.00,VWS V14.01,2013-12-17 19:04:00,
2013-12-17 12:05:00,47.5,10.6,29.94,SSW,192,2.7,3.6,22,0.00,,---,0.00,VWS V14.01,2013-12-17 19:05:00,
2013-12-17 12:06:00,47.8,10.9,29.94,SSW,192,3.6,4.0,22,0.00,,---,0.00,VWS V14.01,2013-12-17 19:06:00,
2013-12-17 12:07:00,48.6,10.4,29.94,SSW,206,3.6,5.4,21,0.00,,---,0.00,VWS V14.01,2013-12-17 19:07:00,
2013-12-17 12:08:00,48.7,10.6,29.94,South,191,4.0,4.0,21,0.00,,---,0.00,VWS V14.01,2013-12-17 19:08:00,
2013-12-17 12:09:00,49.6,9.1,29.94,West,259,2.7,4.9,19,0.00,,---,0.00,VWS V14.01,2013-12-17 19:09:00,
2013-12-17 12:10:00,49.8,11.5,29.94,WSW,241,3.1,3.1,21,0.00,,---,0.00,VWS V14.01,2013-12-17 19:10:00,
2013-12-17 12:12:00,50.4,9.7,29.94,West,276,3.6,4.9,19,0.00,,---,0.00,VWS V14.01,2013-12-17 19:12:00,
2013-12-17 12:13:00,50.7,10.0,29.94,West,271,3.1,3.6,19,0.00,,---,0.00,VWS V14.01,2013-12-17 19:13:00,
2013-12-17 12:14:00,51.1,6.5,29.94,SSW,195,3.6,3.6,16,0.00,,---,0.00,VWS V14.01,2013-12-17 19:14:00,
2013-12-17 12:15:00,51.1,6.5,29.94,South,181,6.3,6.3,16,0.00,,---,0.00,VWS V14.01,2013-12-17 19:15:00,
2013-12-17 12:17:00,51.4,6.8,29.94,SSW,202,4.0,4.0,16,0.00,,---,0.00,VWS V14.01,2013-12-17 19:17:00,
2013-12-17 12:18:00,52.0,7.2,29.94,SW,222,6.3,6.3,16,0.00,,---,0.00,VWS V14.01,2013-12-17 19:18:00,
2013-12-17 12:19:00,52.3,7.5,29.94,South,190,4.9,5.4,16,0.00,,---,0.00,VWS V14.01,2013-12-17 19:19:00,
2013-12-17 12:20:00,52.5,7.6,29.94,SW,222,3.1,4.9,16,0.00,,---,0.00,VWS V14.01,2013-12-17 19:20:00,
2013-12-17 12:21:00,52.7,7.8,29.94,SW,215,7.6,7.6,16,0.00,,---,0.00,VWS V14.01,2013-12-17 19:21:00,
2013-12-17 12:22:00,52.9,7.9,29.94,SSW,203,3.6,4.9,16,0.00,,---,0.00,VWS V14.01,2013-12-17 19:22:00,
2013-12-17 12:23:00,53.1,8.1,29.94,SSW,193,0.0,2.2,16,0.00,,---,0.00,VWS V14.01,2013-12-17 19:23:00,
2013-12-17 12:25:00,53.2,10.9,29.94,SSW,193,0.0,0.0,18,0.00,,---,0.00,VWS V14.01,2013-12-17 19:25:00,
2013-12-17 12:26:00,53.2,10.9,29.94,SSW,193,0.0,0.0,18,0.00,,---,0.00,VWS V14.01,2013-12-17 19:26:00,
2013-12-17 12:27:00,53.1,10.7,29.94,NW,324,3.1,3.1,18,0.00,,---,0.00,VWS V14.01,2013-12-17 19:27:00,
2013-12-17 12:28:00,52.9,10.6,29.94,SSW,195,5.8,5.8,18,0.00,,---,0.00,VWS V14.01,2013-12-17 19:28:00,
2013-12-17 12:30:00,52.2,7.3,29.94,SSW,204,6.3,6.3,16,0.00,,---,0.00,VWS V14.01,2013-12-17 19:30:00,
2013-12-17 12:31:00,52.3,10.1,29.94,North,0,4.9,4.9,18,0.00,,---,0.00,VWS V14.01,2013-12-17 19:31:00,
2013-12-17 12:32:00,52.3,10.1,29.91,North,1,3.1,3.6,18,0.00,,---,0.00,VWS V14.01,2013-12-17 19:32:00,
2013-12-17 12:33:00,52.0,9.8,29.91,North,5,2.7,3.6,18,0.00,,---,0.00,VWS V14.01,2013-12-17 19:33:00,
2013-12-17 12:35:00,50.9,10.1,29.91,ENE,65,2.7,2.7,19,0.00,,---,0.00,VWS V14.01,2013-12-17 19:35:00,
2013-12-17 12:36:00,50.5,9.8,29.91,NW,322,5.8,5.8,19,0.00,,---,0.00,VWS V14.01,2013-12-17 19:36:00,
2013-12-17 12:37:00,50.4,9.7,29.91,NW,304,4.0,4.0,19,0.00,,---,0.00,VWS V14.01,2013-12-17 19:37:00,
2013-12-17 12:38:00,50.2,9.5,29.91,NNW,331,3.6,4.0,19,0.00,,---,0.00,VWS V14.01,2013-12-17 19:38:00,
2013-12-17 12:39:00,50.2,9.5,29.91,NNW,327,2.7,4.0,19,0.00,,---,0.00,VWS V14.01,2013-12-17 19:39:00,
2013-12-17 12:40:00,50.0,9.4,29.91,NNW,327,0.0,0.0,19,0.00,,---,0.00,VWS V14.01,2013-12-17 19:40:00,
2013-12-17 12:42:00,50.0,9.4,29.91,NW,319,0.0,3.1,19,0.00,,---,0.00,VWS V14.01,2013-12-17 19:42:00,
2013-12-17 12:43:00,50.0,9.4,29.91,SSW,212,6.3,6.3,19,0.00,,---,0.00,VWS V14.01,2013-12-17 19:43:00,
2013-12-17 12:44:00,50.2,5.7,29.91,South,188,6.3,6.3,16,0.00,,---,0.00,VWS V14.01,2013-12-17 19:44:00,
2013-12-17 12:45:00,50.7,10.0,29.91,NNE,17,4.5,4.9,19,0.00,,---,0.00,VWS V14.01,2013-12-17 19:45:00,
2013-12-17 12:46:00,50.7,10.0,29.91,NNE,17,4.0,4.9,19,0.00,,---,0.00,VWS V14.01,2013-12-17 19:46:00,
2013-12-17 12:47:00,50.7,10.0,29.91,NNE,13,3.1,4.0,19,0.00,,---,0.00,VWS V14.01,2013-12-17 19:47:00,
2013-12-17 12:48:00,50.2,9.5,29.91,NNE,18,3.1,3.6,19,0.00,,---,0.00,VWS V14.01,2013-12-17 19:48:00,
2013-12-17 12:49:00,50.0,9.4,29.91,NNW,348,3.6,4.0,19,0.00,,---,0.00,VWS V14.01,2013-12-17 19:49:00,
2013-12-17 12:50:00,49.1,8.6,29.91,NNW,339,3.1,3.1,19,0.00,,---,0.00,VWS V14.01,2013-12-17 19:50:00,
2013-12-17 12:51:00,49.1,8.6,29.91,North,0,3.6,3.6,19,0.00,,---,0.00,VWS V14.01,2013-12-17 19:51:00,
2013-12-17 12:52:00,48.6,4.4,29.91,NNW,334,4.9,4.9,16,0.00,,---,0.00,VWS V14.01,2013-12-17 19:52:00,
2013-12-17 12:53:00,48.6,8.2,29.91,West,262,5.8,7.2,19,0.00,,---,0.00,VWS V14.01,2013-12-17 19:53:00,
2013-12-17 12:54:00,48.7,8.3,29.91,SSW,203,4.0,4.9,19,0.00,,---,0.00,VWS V14.01,2013-12-17 19:54:00,
2013-12-17 12:56:00,49.1,8.6,29.91,NE,42,0.0,3.6,19,0.00,,---,0.00,VWS V14.01,2013-12-17 19:56:00,
2013-12-17 12:58:00,50.0,5.6,29.91,South,182,3.6,5.4,16,0.00,,---,0.00,VWS V14.01,2013-12-17 19:58:00,
2013-12-17 12:59:00,50.7,10.0,29.91,NNW,333,5.4,5.4,19,0.00,,---,0.00,VWS V14.01,2013-12-17 19:59:00,
2013-12-17 13:00:00,44.1,8.6,29.88,North,2,3.6,3.6,23,0.00,,,0.00,VWS V15.00,2013-12-17 20:00:00,
2013-12-17 13:01:00,50.7,10.0,29.91,North,4,2.7,3.1,19,0.00,,---,0.00,VWS V14.01,2013-12-17 20:01:00,
2013-12-17 13:03:00,50.2,9.5,29.91,North,1,2.2,3.6,19,0.00,,---,0.00,VWS V14.01,2013-12-17 20:03:00,
2013-12-17 13:04:00,49.8,9.2,29.91,North,1,4.9,5.8,19,0.00,,---,0.00,VWS V14.01,2013-12-17 20:04:00,
2013-12-17 13:05:00,49.8,9.2,29.91,ENE,61,0.0,4.9,19,0.00,,---,0.00,VWS V14.01,2013-12-17 20:05:00,
2013-12-17 13:06:00,49.6,9.1,29.91,NNE,25,3.6,3.6,19,0.00,,---,0.00,VWS V14.01,2013-12-17 20:06:00,
2013-12-17 13:08:00,49.3,8.8,29.91,NW,322,3.6,7.6,19,0.00,,---,0.00,VWS V14.01,2013-12-17 20:08:00,
2013-12-17 13:10:00,49.5,5.2,29.91,SW,223,5.4,5.4,16,0.00,,---,0.00,VWS V14.01,2013-12-17 20:10:00,
2013-12-17 13:11:00,49.8,9.2,29.91,NNE,32,2.7,3.6,19,0.00,,---,0.00,VWS V14.01,2013-12-17 20:11:00,
2013-12-17 13:13:00,49.8,9.2,29.91,North,6,5.4,5.4,19,0.00,,---,0.00,VWS V14.01,2013-12-17 20:13:00,
2013-12-17 13:14:00,49.3,8.8,29.91,North,10,8.3,8.3,19,0.00,,---,0.00,VWS V14.01,2013-12-17 20:14:00,
2013-12-17 13:15:00,49.1,8.6,29.91,North,10,4.9,5.8,19,0.00,,---,0.00,VWS V14.01,2013-12-17 20:15:00,
2013-12-17 13:16:00,48.6,8.2,29.91,North,9,5.8,5.8,19,0.00,,---,0.00,VWS V14.01,2013-12-17 20:16:00,
2013-12-17 13:18:00,47.7,7.4,29.91,North,2,4.0,4.0,19,0.00,,---,0.00,VWS V14.01,2013-12-17 20:18:00,
2013-12-17 13:19:00,47.1,7.0,29.91,NNE,14,5.4,7.6,19,0.00,,---,0.00,VWS V14.01,2013-12-17 20:19:00,
2013-12-17 13:20:00,47.1,7.0,29.91,NNE,18,4.0,7.6,19,0.00,,---,0.00,VWS V14.01,2013-12-17 20:20:00,
2013-12-17 13:21:00,46.2,7.4,29.91,North,349,3.1,3.1,20,0.00,,---,0.00,VWS V14.01,2013-12-17 20:21:00,
2013-12-17 13:22:00,46.2,7.4,29.91,North,0,4.0,4.0,20,0.00,,---,0.00,VWS V14.01,2013-12-17 20:22:00,
2013-12-17 13:24:00,45.5,6.8,29.91,North,357,4.9,6.3,20,0.00,,---,0.00,VWS V14.01,2013-12-17 20:24:00,
2013-12-17 13:25:00,45.3,6.6,29.91,NNE,15,5.8,6.3,20,0.00,,---,0.00,VWS V14.01,2013-12-17 20:25:00,
2013-12-17 13:26:00,45.0,6.3,29.91,NNE,14,3.1,4.0,20,0.00,,---,0.00,VWS V14.01,2013-12-17 20:26:00,
2013-12-17 13:27:00,45.0,6.3,29.91,North,5,2.7,4.0,20,0.00,,---,0.00,VWS V14.01,2013-12-17 20:27:00,
2013-12-17 13:29:00,44.4,8.9,29.91,North,5,0.0,0.0,23,0.00,,---,0.00,VWS V14.01,2013-12-17 20:29:00,
2013-12-17 13:30:00,44.2,8.8,29.91,North,5,3.6,3.6,23,0.00,,---,0.00,VWS V14.01,2013-12-17 20:30:00,
2013-12-17 13:31:00,44.2,8.8,29.91,North,2,2.7,4.0,23,0.00,,---,0.00,VWS V14.01,2013-12-17 20:31:00,
2013-12-17 13:32:00,44.2,8.8,29.91,North,357,4.0,4.0,23,0.00,,---,0.00,VWS V14.01,2013-12-17 20:32:00,
2013-12-17 13:34:00,44.1,8.6,29.88,North,9,5.8,5.8,23,0.00,,---,0.00,VWS V14.01,2013-12-17 20:34:00,
2013-12-17 13:35:00,44.1,8.6,29.88,NNE,12,3.1,5.8,23,0.00,,---,0.00,VWS V14.01,2013-12-17 20:35:00,
2013-12-17 13:36:00,44.1,8.6,29.88,NNE,12,2.2,2.2,23,0.00,,---,0.00,VWS V14.01,2013-12-17 20:36:00,
2013-12-17 13:37:00,44.1,8.6,29.88,NNE,12,0.0,2.7,23,0.00,,---,0.00,VWS V14.01,2013-12-17 20:37:00,
2013-12-17 13:40:00,44.6,8.1,29.88,North,9,2.7,4.0,22,0.00,,---,0.00,VWS V14.01,2013-12-17 20:40:00,
2013-12-17 13:41:00,44.6,8.1,29.88,North,10,2.7,2.7,22,0.00,,---,0.00,VWS V14.01,2013-12-17 20:41:00,
2013-12-17 13:42:00,44.6,8.1,29.88,North,5,4.0,4.9,22,0.00,,---,0.00,VWS V14.01,2013-12-17 20:42:00,
2013-12-17 13:45:00,44.6,8.1,29.88,NNE,16,2.7,4.0,22,0.00,,---,0.00,VWS V14.01,2013-12-17 20:45:00,
2013-12-17 13:46:00,44.6,8.1,29.88,North,2,3.6,3.6,22,0.00,,---,0.00,VWS V14.01,2013-12-17 20:46:00,
2013-12-17 13:47:00,44.6,8.1,29.88,NNE,18,6.3,6.3,22,0.00,,---,0.00,VWS V14.01,2013-12-17 20:47:00,
2013-12-17 13:50:00,44.2,8.8,29.88,North,5,4.0,5.4,23,0.00,,---,0.00,VWS V14.01,2013-12-17 20:50:00,
2013-12-17 13:51:00,44.2,8.8,29.88,NNE,22,5.4,5.4,23,0.00,,---,0.00,VWS V14.01,2013-12-17 20:51:00,
2013-12-17 13:52:00,44.2,8.8,29.88,NNE,22,3.6,4.0,23,0.00,,---,0.00,VWS V14.01,2013-12-17 20:52:00,
2013-12-17 13:55:00,44.1,8.6,29.88,North,7,4.5,4.5,23,0.00,,---,0.00,VWS V14.01,2013-12-17 20:55:00,
2013-12-17 13:56:00,44.1,8.6,29.88,North,5,5.4,5.4,23,0.00,,---,0.00,VWS V14.01,2013-12-17 20:56:00,
2013-12-17 13:57:00,44.1,8.6,29.88,North,4,3.6,4.0,23,0.00,,---,0.00,VWS V14.01,2013-12-17 20:57:00,
2013-12-17 14:00:00,44.1,8.6,29.88,NNE,13,4.0,4.0,23,0.00,,---,0.00,VWS V14.01,2013-12-17 21:00:00,
2013-12-17 14:01:00,44.1,8.6,29.88,NNE,13,3.1,4.0,23,0.00,,---,0.00,VWS V14.01,2013-12-17 21:01:00,
2013-12-17 14:02:00,44.1,8.6,29.88,North,9,4.0,4.0,23,0.00,,---,0.00,VWS V14.01,2013-12-17 21:02:00,
2013-12-17 14:03:00,44.1,8.6,29.88,North,5,3.1,3.6,23,0.00,,---,0.00,VWS V14.01,2013-12-17 21:03:00,
2013-12-17 14:05:00,44.1,8.6,29.88,NNE,22,4.0,4.0,23,0.00,,---,0.00,VWS V14.01,2013-12-17 21:05:00,
2013-12-17 14:06:00,44.1,8.6,29.88,NNE,31,4.9,4.9,23,0.00,,---,0.00,VWS V14.01,2013-12-17 21:06:00,
2013-12-17 14:07:00,44.1,8.6,29.88,North,6,4.5,5.4,23,0.00,,---,0.00,VWS V14.01,2013-12-17 21:07:00,
2013-12-17 14:08:00,44.1,8.6,29.88,North,357,2.7,3.6,23,0.00,,---,0.00,VWS V14.01,2013-12-17 21:08:00,
2013-12-17 14:10:00,44.1,8.6,29.88,ENE,74,0.0,0.0,23,0.00,,---,0.00,VWS V14.01,2013-12-17 21:10:00,
2013-12-17 14:11:00,44.1,8.6,29.88,ENE,74,0.0,0.0,23,0.00,,---,0.00,VWS V14.01,2013-12-17 21:11:00,
2013-12-17 14:12:00,44.1,8.6,29.88,North,10,5.4,5.4,23,0.00,,---,0.00,VWS V14.01,2013-12-17 21:12:00,
2013-12-17 14:13:00,44.1,8.6,29.88,NNE,14,4.0,4.0,23,0.00,,---,0.00,VWS V14.01,2013-12-17 21:13:00,
2013-12-17 14:15:00,45.3,11.6,29.88,NNW,338,0.0,0.0,25,0.00,,,0.00,VWS V15.00,2013-12-17 21:15:00,
2013-12-17 14:16:00,44.1,10.5,29.88,NW,317,4.0,4.0,25,0.00,,---,0.00,VWS V14.01,2013-12-17 21:16:00,
2013-12-17 14:18:00,43.9,10.4,29.88,North,3,6.3,6.3,25,0.00,,---,0.00,VWS V14.01,2013-12-17 21:18:00,
2013-12-17 14:19:00,43.9,10.4,29.88,North,6,3.6,4.9,25,0.00,,---,0.00,VWS V14.01,2013-12-17 21:19:00,
2013-12-17 14:21:00,43.7,10.2,29.88,North,7,0.0,0.0,25,0.00,,---,0.00,VWS V14.01,2013-12-17 21:21:00,
2013-12-17 14:23:00,43.7,10.2,29.88,North,8,2.7,3.1,25,0.00,,---,0.00,VWS V14.01,2013-12-17 21:23:00,
2013-12-17 14:24:00,43.7,10.2,29.88,North,8,2.7,2.7,25,0.00,,---,0.00,VWS V14.01,2013-12-17 21:24:00,
2013-12-17 14:26:00,43.7,10.2,29.88,North,3,0.0,0.0,25,0.00,,---,0.00,VWS V14.01,2013-12-17 21:26:00,
2013-12-17 14:28:00,43.7,10.2,29.88,North,8,0.0,0.0,25,0.00,,---,0.00,VWS V14.01,2013-12-17 21:28:00,
2013-12-17 14:29:00,43.7,10.2,29.88,North,8,0.0,0.0,25,0.00,,---,0.00,VWS V14.01,2013-12-17 21:29:00,
2013-12-17 14:30:00,45.1,11.4,29.88,North,0,2.7,3.1,25,0.00,,,0.00,VWS V15.00,2013-12-17 21:30:00,
2013-12-17 14:31:00,43.9,10.4,29.88,North,10,0.0,0.0,25,0.00,,---,0.00,VWS V14.01,2013-12-17 21:31:00,
2013-12-17 14:33:00,44.1,10.5,29.88,North,8,4.0,4.0,25,0.00,,---,0.00,VWS V14.01,2013-12-17 21:33:00,
2013-12-17 14:34:00,44.1,10.5,29.88,North,0,4.9,4.9,25,0.00,,---,0.00,VWS V14.01,2013-12-17 21:34:00,
2013-12-17 14:36:00,43.9,10.4,29.88,NNW,345,3.6,4.0,25,0.00,,---,0.00,VWS V14.01,2013-12-17 21:36:00,
2013-12-17 14:38:00,43.9,10.4,29.88,NW,326,3.1,3.1,25,0.00,,---,0.00,VWS V14.01,2013-12-17 21:38:00,
2013-12-17 14:39:00,43.9,10.4,29.88,NNE,19,8.1,8.1,25,0.00,,---,0.00,VWS V14.01,2013-12-17 21:39:00,
2013-12-17 14:41:00,44.1,10.5,29.88,North,357,4.0,4.0,25,0.00,,---,0.00,VWS V14.01,2013-12-17 21:41:00,
2013-12-17 14:42:00,44.1,10.5,29.88,North,357,0.0,2.7,25,0.00,,---,0.00,VWS V14.01,2013-12-17 21:42:00,
2013-12-17 14:43:00,44.1,10.5,29.88,North,357,2.2,2.2,25,0.00,,---,0.00,VWS V14.01,2013-12-17 21:43:00,
2013-12-17 14:44:00,44.1,10.5,29.88,NE,35,2.7,2.7,25,0.00,,---,0.00,VWS V14.01,2013-12-17 21:44:00,
2013-12-17 14:45:00,45.0,8.4,29.88,North,353,2.2,2.2,22,0.00,,,0.00,VWS V15.00,2013-12-17 21:45:00,
2013-12-17 14:47:00,44.2,10.7,29.88,NNE,14,3.6,4.0,25,0.00,,---,0.00,VWS V14.01,2013-12-17 21:47:00,
2013-12-17 14:48:00,44.4,10.8,29.88,NNE,15,0.0,0.0,25,0.00,,---,0.00,VWS V14.01,2013-12-17 21:48:00,
2013-12-17 14:49:00,44.6,11.0,29.88,North,353,0.0,0.0,25,0.00,,---,0.00,VWS V14.01,2013-12-17 21:49:00,
2013-12-17 14:52:00,44.6,11.0,29.88,North,7,5.4,5.4,25,0.00,,---,0.00,VWS V14.01,2013-12-17 21:52:00,
2013-12-17 14:53:00,44.8,11.1,29.88,North,5,5.4,5.4,25,0.00,,---,0.00,VWS V14.01,2013-12-17 21:53:00,
2013-12-17 14:54:00,44.8,11.1,29.88,North,2,3.1,4.0,25,0.00,,---,0.00,VWS V14.01,2013-12-17 21:54:00,
2013-12-17 14:55:00,44.8,11.1,29.88,North,2,3.1,4.0,25,0.00,,---,0.00,VWS V14.01,2013-12-17 21:55:00,
2013-12-17 14:57:00,44.8,11.1,29.88,North,2,0.0,0.0,25,0.00,,---,0.00,VWS V14.01,2013-12-17 21:57:00,
2013-12-17 14:58:00,44.6,11.0,29.88,North,2,0.0,0.0,25,0.00,,---,0.00,VWS V14.01,2013-12-17 21:58:00,
2013-12-17 15:00:00,44.6,11.0,29.88,North,3,0.0,0.0,25,0.00,,---,0.00,VWS V14.01,2013-12-17 22:00:00,
2013-12-17 15:02:00,44.8,11.1,29.88,NNE,13,0.0,0.0,25,0.00,,---,0.00,VWS V14.01,2013-12-17 22:02:00,
2013-12-17 15:03:00,44.8,11.1,29.88,NNE,15,4.0,4.0,25,0.00,,---,0.00,VWS V14.01,2013-12-17 22:03:00,
2013-12-17 15:05:00,45.1,11.4,29.88,NNW,338,3.1,3.1,25,0.00,,---,0.00,VWS V14.01,2013-12-17 22:05:00,
2013-12-17 15:06:00,45.1,11.4,29.88,NNW,338,0.0,0.0,25,0.00,,---,0.00,VWS V14.01,2013-12-17 22:06:00,
2013-12-17 15:07:00,45.1,11.4,29.88,NNW,338,0.0,0.0,25,0.00,,---,0.00,VWS V14.01,2013-12-17 22:07:00,
2013-12-17 15:08:00,45.1,11.4,29.88,NNW,338,0.0,0.0,25,0.00,,---,0.00,VWS V14.01,2013-12-17 22:08:00,
2013-12-17 15:10:00,45.1,11.4,29.88,NNW,338,0.0,0.0,25,0.00,,---,0.00,VWS V14.01,2013-12-17 22:10:00,
2013-12-17 15:11:00,45.1,11.4,29.88,NNW,338,0.0,0.0,25,0.00,,---,0.00,VWS V14.01,2013-12-17 22:11:00,
2013-12-17 15:12:00,45.1,11.4,29.88,NNW,338,0.0,0.0,25,0.00,,---,0.00,VWS V14.01,2013-12-17 22:12:00,
2013-12-17 15:13:00,45.1,11.4,29.88,NNW,338,0.0,0.0,25,0.00,,---,0.00,VWS V14.01,2013-12-17 22:13:00,
2013-12-17 15:15:00,45.3,11.6,29.88,NNW,338,0.0,0.0,25,0.00,,---,0.00,VWS V14.01,2013-12-17 22:15:00,
2013-12-17 15:16:00,45.3,11.6,29.88,NNW,338,0.0,0.0,25,0.00,,---,0.00,VWS V14.01,2013-12-17 22:16:00,
2013-12-17 15:18:00,45.3,8.7,29.88,NNW,338,0.0,0.0,22,0.00,,---,0.00,VWS V14.01,2013-12-17 22:18:00,
2013-12-17 15:19:00,45.3,8.7,29.88,NNW,339,3.1,3.1,22,0.00,,---,0.00,VWS V14.01,2013-12-17 22:19:00,
2013-12-17 15:20:00,45.5,8.9,29.88,NNE,31,6.3,6.3,22,0.00,,---,0.00,VWS V14.01,2013-12-17 22:20:00,
2013-12-17 15:21:00,45.5,8.9,29.88,NNW,345,3.1,6.3,22,0.00,,---,0.00,VWS V14.01,2013-12-17 22:21:00,
2013-12-17 15:22:00,45.5,8.9,29.88,NW,312,4.0,4.0,22,0.00,,---,0.00,VWS V14.01,2013-12-17 22:22:00,
2013-12-17 15:23:00,45.5,11.7,29.88,NW,312,3.1,3.1,25,0.00,,---,0.00,VWS V14.01,2013-12-17 22:23:00,
2013-12-17 15:24:00,45.5,8.9,29.88,NW,314,3.1,3.6,22,0.00,,---,0.00,VWS V14.01,2013-12-17 22:24:00,
2013-12-17 15:26:00,45.5,11.7,29.88,NW,314,0.0,0.0,25,0.00,,---,0.00,VWS V14.01,2013-12-17 22:26:00,
2013-12-17 15:27:00,45.3,11.6,29.88,NW,314,0.0,0.0,25,0.00,,---,0.00,VWS V14.01,2013-12-17 22:27:00,
2013-12-17 15:28:00,45.3,11.6,29.88,NW,314,2.2,2.2,25,0.00,,---,0.00,VWS V14.01,2013-12-17 22:28:00,
2013-12-17 15:29:00,45.3,8.7,29.88,NNW,348,3.6,3.6,22,0.00,,---,0.00,VWS V14.01,2013-12-17 22:29:00,
2013-12-17 15:30:00,44.8,8.3,29.88,North,353,0.0,0.0,22,0.00,,,0.00,VWS V15.00,2013-12-17 22:30:00,
2013-12-17 15:31:00,45.1,8.6,29.88,North,0,0.0,2.2,22,0.00,,---,0.00,VWS V14.01,2013-12-17 22:31:00,
2013-12-17 15:32:00,45.1,8.6,29.88,North,0,0.0,0.0,22,0.00,,---,0.00,VWS V14.01,2013-12-17 22:32:00,
2013-12-17 15:33:00,45.1,8.6,29.88,North,0,0.0,0.0,22,0.00,,---,0.00,VWS V14.01,2013-12-17 22:33:00,
2013-12-17 15:34:00,45.1,8.6,29.88,North,353,0.0,0.0,22,0.00,,---,0.00,VWS V14.01,2013-12-17 22:34:00,
2013-12-17 15:36:00,45.1,11.4,29.88,North,353,0.0,0.0,25,0.00,,---,0.00,VWS V14.01,2013-12-17 22:36:00,
2013-12-17 15:37:00,44.8,11.1,29.88,NNW,338,0.0,0.0,25,0.00,,---,0.00,VWS V14.01,2013-12-17 22:37:00,
2013-12-17 15:38:00,44.8,11.1,29.88,NNW,338,0.0,0.0,25,0.00,,---,0.00,VWS V14.01,2013-12-17 22:38:00,
2013-12-17 15:39:00,44.8,8.3,29.88,NNW,338,0.0,0.0,22,0.00,,---,0.00,VWS V14.01,2013-12-17 22:39:00,
2013-12-17 15:41:00,44.6,8.1,29.88,NNW,345,0.0,0.0,22,0.00,,---,0.00,VWS V14.01,2013-12-17 22:41:00,
2013-12-17 15:43:00,44.8,8.3,29.88,North,0,3.1,3.6,22,0.00,,---,0.00,VWS V14.01,2013-12-17 22:43:00,
2013-12-17 15:44:00,45.0,8.4,29.88,North,353,2.7,2.7,22,0.00,,---,0.00,VWS V14.01,2013-12-17 22:44:00,
2013-12-17 15:45:00,45.1,6.5,29.85,WNW,301,2.7,3.1,20,0.00,,,0.00,VWS V15.00,2013-12-17 22:45:00,
2013-12-17 15:47:00,45.1,8.6,29.88,North,0,3.6,3.6,22,0.00,,---,0.00,VWS V14.01,2013-12-17 22:47:00,
2013-12-17 15:48:00,45.3,8.7,29.88,North,357,0.0,0.0,22,0.00,,---,0.00,VWS V14.01,2013-12-17 22:48:00,
2013-12-17 15:49:00,45.3,8.7,29.88,North,357,0.0,0.0,22,0.00,,---,0.00,VWS V14.01,2013-12-17 22:49:00,
2013-12-17 15:52:00,45.1,8.6,29.88,NNW,340,0.0,0.0,22,0.00,,---,0.00,VWS V14.01,2013-12-17 22:52:00,
2013-12-17 15:54:00,45.0,8.4,29.88,NNW,341,0.0,0.0,22,0.00,,---,0.00,VWS V14.01,2013-12-17 22:54:00,
2013-12-17 15:57:00,45.0,8.4,29.88,NNW,339,0.0,0.0,22,0.00,,---,0.00,VWS V14.01,2013-12-17 22:57:00,
2013-12-17 15:59:00,45.0,8.4,29.88,NNW,339,0.0,0.0,22,0.00,,---,0.00,VWS V14.01,2013-12-17 22:59:00,
2013-12-17 16:00:00,49.3,8.8,29.85,SSW,194,3.6,3.6,19,0.00,,,0.00,VWS V15.00,2013-12-17 23:00:00,
2013-12-17 16:02:00,44.8,8.3,29.88,NNE,19,0.0,0.0,22,0.00,,---,0.00,VWS V14.01,2013-12-17 23:02:00,
2013-12-17 16:04:00,44.8,8.3,29.88,NNE,19,0.0,0.0,22,0.00,,---,0.00,VWS V14.01,2013-12-17 23:04:00,
2013-12-17 16:05:00,44.8,8.3,29.88,NNE,19,0.0,0.0,22,0.00,,---,0.00,VWS V14.01,2013-12-17 23:05:00,
2013-12-17 16:07:00,44.8,8.3,29.88,NNE,19,0.0,0.0,22,0.00,,---,0.00,VWS V14.01,2013-12-17 23:07:00,
2013-12-17 16:08:00,44.8,8.3,29.88,NNE,19,0.0,0.0,22,0.00,,---,0.00,VWS V14.01,2013-12-17 23:08:00,
2013-12-17 16:09:00,44.8,8.3,29.88,NNE,19,0.0,0.0,22,0.00,,---,0.00,VWS V14.01,2013-12-17 23:09:00,
2013-12-17 16:10:00,44.8,8.3,29.88,NNE,19,0.0,0.0,22,0.00,,---,0.00,VWS V14.01,2013-12-17 23:10:00,
2013-12-17 16:12:00,44.8,8.3,29.88,NNE,19,0.0,0.0,22,0.00,,---,0.00,VWS V14.01,2013-12-17 23:12:00,
2013-12-17 16:13:00,44.6,8.1,29.88,NNE,19,0.0,0.0,22,0.00,,---,0.00,VWS V14.01,2013-12-17 23:13:00,
2013-12-17 16:14:00,44.6,8.1,29.88,NNE,19,0.0,0.0,22,0.00,,---,0.00,VWS V14.01,2013-12-17 23:14:00,
2013-12-17 16:15:00,44.4,8.9,29.88,NNE,19,0.0,0.0,23,0.00,,---,0.00,VWS V14.01,2013-12-17 23:15:00,
2013-12-17 16:16:00,44.2,8.8,29.88,NNE,19,0.0,0.0,23,0.00,,---,0.00,VWS V14.01,2013-12-17 23:16:00,
2013-12-17 16:17:00,44.1,8.6,29.88,NNE,19,0.0,0.0,23,0.00,,---,0.00,VWS V14.01,2013-12-17 23:17:00,
2013-12-17 16:18:00,44.1,8.6,29.88,NNE,19,0.0,0.0,23,0.00,,---,0.00,VWS V14.01,2013-12-17 23:18:00,
2013-12-17 16:19:00,44.1,8.6,29.88,NNE,19,0.0,0.0,23,0.00,,---,0.00,VWS V14.01,2013-12-17 23:19:00,
2013-12-17 16:20:00,44.1,8.6,29.88,NNE,19,0.0,0.0,23,0.00,,---,0.00,VWS V14.01,2013-12-17 23:20:00,
2013-12-17 16:21:00,44.1,8.6,29.88,NNE,19,0.0,0.0,23,0.00,,---,0.00,VWS V14.01,2013-12-17 23:21:00,
2013-12-17 16:22:00,44.1,8.6,29.88,NNE,19,0.0,0.0,23,0.00,,---,0.00,VWS V14.01,2013-12-17 23:22:00,
2013-12-17 16:23:00,44.1,8.6,29.88,NNE,19,0.0,0.0,23,0.00,,---,0.00,VWS V14.01,2013-12-17 23:23:00,
2013-12-17 16:24:00,44.2,8.8,29.88,NNE,19,0.0,0.0,23,0.00,,---,0.00,VWS V14.01,2013-12-17 23:24:00,
2013-12-17 16:25:00,44.2,8.8,29.88,North,5,3.6,3.6,23,0.00,,---,0.00,VWS V14.01,2013-12-17 23:25:00,
2013-12-17 16:26:00,44.4,8.9,29.88,North,0,3.1,4.0,23,0.00,,---,0.00,VWS V14.01,2013-12-17 23:26:00,
2013-12-17 16:28:00,44.6,8.1,29.88,North,353,0.0,0.0,22,0.00,,---,0.00,VWS V14.01,2013-12-17 23:28:00,
2013-12-17 16:29:00,44.6,8.1,29.88,North,353,0.0,0.0,22,0.00,,---,0.00,VWS V14.01,2013-12-17 23:29:00,
2013-12-17 16:30:00,44.8,8.3,29.88,North,353,0.0,0.0,22,0.00,,---,0.00,VWS V14.01,2013-12-17 23:30:00,
2013-12-17 16:31:00,44.8,8.3,29.88,North,353,0.0,0.0,22,0.00,,---,0.00,VWS V14.01,2013-12-17 23:31:00,
2013-12-17 16:33:00,45.0,8.4,29.85,North,350,0.0,0.0,22,0.00,,---,0.00,VWS V14.01,2013-12-17 23:33:00,
2013-12-17 16:34:00,45.0,8.4,29.85,North,350,0.0,0.0,22,0.00,,---,0.00,VWS V14.01,2013-12-17 23:34:00,
2013-12-17 16:35:00,45.1,8.6,29.85,North,350,0.0,0.0,22,0.00,,---,0.00,VWS V14.01,2013-12-17 23:35:00,
2013-12-17 16:36:00,45.0,8.4,29.85,North,350,0.0,0.0,22,0.00,,---,0.00,VWS V14.01,2013-12-17 23:36:00,
2013-12-17 16:38:00,44.8,8.3,29.85,North,350,0.0,0.0,22,0.00,,---,0.00,VWS V14.01,2013-12-17 23:38:00,
2013-12-17 16:39:00,44.8,8.3,29.85,NNW,342,0.0,0.0,22,0.00,,---,0.00,VWS V14.01,2013-12-17 23:39:00,
2013-12-17 16:40:00,44.8,6.2,29.85,NNW,342,0.0,0.0,20,0.00,,---,0.00,VWS V14.01,2013-12-17 23:40:00,
2013-12-17 16:41:00,44.8,6.2,29.85,NNW,342,0.0,0.0,20,0.00,,---,0.00,VWS V14.01,2013-12-17 23:41:00,
2013-12-17 16:43:00,44.8,6.2,29.85,NNW,342,0.0,0.0,20,0.00,,---,0.00,VWS V14.01,2013-12-17 23:43:00,
2013-12-17 16:44:00,45.0,6.3,29.85,WNW,301,3.1,3.1,20,0.00,,---,0.00,VWS V14.01,2013-12-17 23:44:00,
2013-12-17 16:45:00,45.1,6.5,29.85,WNW,301,3.6,3.6,20,0.00,,---,0.00,VWS V14.01,2013-12-17 23:45:00,
2013-12-17 16:46:00,45.5,6.8,29.85,WNW,301,2.2,2.7,20,0.00,,---,0.00,VWS V14.01,2013-12-17 23:46:00,
2013-12-17 16:49:00,46.2,7.4,29.85,SSW,193,2.7,2.7,20,0.00,,---,0.00,VWS V14.01,2013-12-17 23:49:00,
2013-12-17 16:50:00,46.6,6.5,29.85,SSW,195,0.0,0.0,19,0.00,,---,0.00,VWS V14.01,2013-12-17 23:50:00,
2013-12-17 16:51:00,46.9,6.8,29.85,SSW,209,0.0,0.0,19,0.00,,---,0.00,VWS V14.01,2013-12-17 23:51:00,
2013-12-17 16:52:00,47.1,7.0,29.85,SSW,200,0.0,0.0,19,0.00,,---,0.00,VWS V14.01,2013-12-17 23:52:00,
2013-12-17 16:54:00,47.5,7.3,29.85,SSW,203,2.7,3.1,19,0.00,,---,0.00,VWS V14.01,2013-12-17 23:54:00,
2013-12-17 16:55:00,48.0,7.7,29.85,SSW,198,3.1,4.0,19,0.00,,---,0.00,VWS V14.01,2013-12-17 23:55:00,
2013-12-17 16:56:00,48.2,7.9,29.85,SSW,203,3.6,3.6,19,0.00,,---,0.00,VWS V14.01,2013-12-17 23:56:00,
2013-12-17 16:57:00,48.6,8.2,29.85,SW,222,4.0,5.4,19,0.00,,---,0.00,VWS V14.01,2013-12-17 23:57:00,
2013-12-17 16:59:00,49.1,8.6,29.85,SSW,196,4.0,4.0,19,0.00,,---,0.00,VWS V14.01,2013-12-17 23:59:00,
2013-12-17 17:00:00,51.4,6.8,29.85,SW,218,8.3,8.3,16,0.00,,,0.00,VWS V15.00,2013-12-18 00:00:00,
2013-12-17 17:01:00,49.5,8.9,29.85,SW,229,4.9,4.9,19,0.00,,---,0.00,VWS V14.01,2013-12-18 00:01:00,
2013-12-17 17:02:00,49.6,9.1,29.85,SSW,196,4.0,5.8,19,0.00,,---,0.00,VWS V14.01,2013-12-18 00:02:00,
2013-12-17 17:04:00,49.8,5.4,29.85,SSW,207,4.0,4.0,16,0.00,,---,0.00,VWS V14.01,2013-12-18 00:04:00,
2013-12-17 17:06:00,50.2,5.7,29.85,SSW,203,5.8,5.8,16,0.00,,---,0.00,VWS V14.01,2013-12-18 00:06:00,
2013-12-17 17:07:00,50.4,5.9,29.85,SSW,212,4.5,5.4,16,0.00,,---,0.00,VWS V14.01,2013-12-18 00:07:00,
2013-12-17 17:09:00,50.7,6.2,29.85,South,188,5.8,5.8,16,0.00,,---,0.00,VWS V14.01,2013-12-18 00:09:00,
2013-12-17 17:11:00,50.7,6.2,29.85,SSW,211,3.1,3.1,16,0.00,,---,0.00,VWS V14.01,2013-12-18 00:11:00,
2013-12-17 17:12:00,50.9,6.3,29.85,SSW,210,6.3,6.3,16,0.00,,---,0.00,VWS V14.01,2013-12-18 00:12:00,
2013-12-17 17:14:00,50.9,6.3,29.85,SSW,196,5.4,5.4,16,0.00,,---,0.00,VWS V14.01,2013-12-18 00:14:00,
2013-12-17 17:15:00,51.4,6.8,29.82,SSW,207,6.3,6.3,16,0.00,,,0.00,VWS V15.00,2013-12-18 00:15:00,
2013-12-17 17:16:00,51.1,6.5,29.85,SSW,195,5.4,5.8,16,0.00,,---,0.00,VWS V14.01,2013-12-18 00:16:00,
2013-12-17 17:17:00,51.1,6.5,29.85,SW,218,6.3,6.3,16,0.00,,---,0.00,VWS V14.01,2013-12-18 00:17:00,
2013-12-17 17:19:00,51.1,6.5,29.85,SSW,211,6.3,6.3,16,0.00,,---,0.00,VWS V14.01,2013-12-18 00:19:00,
2013-12-17 17:21:00,51.3,6.6,29.85,SW,232,4.9,6.3,16,0.00,,---,0.00,VWS V14.01,2013-12-18 00:21:00,
2013-12-17 17:22:00,51.3,6.6,29.85,SSW,212,5.4,5.8,16,0.00,,---,0.00,VWS V14.01,2013-12-18 00:22:00,
2013-12-17 17:23:00,51.3,6.6,29.85,SSW,209,5.8,5.8,16,0.00,,---,0.00,VWS V14.01,2013-12-18 00:23:00,
2013-12-17 17:24:00,51.3,6.6,29.85,SSW,205,4.0,6.3,16,0.00,,---,0.00,VWS V14.01,2013-12-18 00:24:00,
2013-12-17 17:26:00,51.3,6.6,29.85,SSW,212,5.8,6.3,16,0.00,,---,0.00,VWS V14.01,2013-12-18 00:26:00,
2013-12-17 17:27:00,51.3,6.6,29.85,SSW,208,5.4,5.8,16,0.00,,---,0.00,VWS V14.01,2013-12-18 00:27:00,
2013-12-17 17:28:00,51.3,6.6,29.85,SSW,208,5.4,7.6,16,0.00,,---,0.00,VWS V14.01,2013-12-18 00:28:00,
2013-12-17 17:30:00,51.4,6.8,29.85,SSW,213,7.6,7.6,16,0.00,,---,0.00,VWS V14.01,2013-12-18 00:30:00,
2013-12-17 17:32:00,51.6,6.9,29.85,SSW,194,6.3,6.3,16,0.00,,---,0.00,VWS V14.01,2013-12-18 00:32:00,
2013-12-17 17:33:00,51.6,6.9,29.85,SW,216,8.3,8.3,16,0.00,,---,0.00,VWS V14.01,2013-12-18 00:33:00,
2013-12-17 17:35:00,51.6,6.9,29.85,SSW,205,4.0,5.8,16,0.00,,---,0.00,VWS V14.01,2013-12-18 00:35:00,
2013-12-17 17:37:00,51.6,6.9,29.85,SSW,213,5.4,6.3,16,0.00,,---,0.00,VWS V14.01,2013-12-18 00:37:00,
2013-12-17 17:38:00,51.6,6.9,29.85,SSW,200,7.6,7.6,16,0.00,,---,0.00,VWS V14.01,2013-12-18 00:38:00,
2013-12-17 17:40:00,51.6,6.9,29.85,SSW,208,8.1,8.1,16,0.00,,---,0.00,VWS V14.01,2013-12-18 00:40:00,
2013-12-17 17:42:00,51.6,6.9,29.85,SSW,206,5.8,5.8,16,0.00,,---,0.00,VWS V14.01,2013-12-18 00:42:00,
2013-12-17 17:43:00,51.6,6.9,29.85,SSW,204,5.4,5.8,16,0.00,,---,0.00,VWS V14.01,2013-12-18 00:43:00,
2013-12-17 17:44:00,51.6,6.9,29.85,SSW,205,5.8,6.3,16,0.00,,---,0.00,VWS V14.01,2013-12-18 00:44:00,
2013-12-17 17:45:00,51.6,6.9,29.85,SSW,200,7.6,7.6,16,0.00,,---,0.00,VWS V14.01,2013-12-18 00:45:00,
2013-12-17 17:47:00,51.6,6.9,29.85,SSW,213,5.4,8.3,16,0.00,,---,0.00,VWS V14.01,2013-12-18 00:47:00,
2013-12-17 17:48:00,51.6,6.9,29.85,SSW,207,6.3,7.6,16,0.00,,---,0.00,VWS V14.01,2013-12-18 00:48:00,
2013-12-17 17:50:00,51.6,6.9,29.85,SSW,199,5.4,7.6,16,0.00,,---,0.00,VWS V14.01,2013-12-18 00:50:00,
2013-12-17 17:52:00,51.6,6.9,29.85,SW,216,6.3,6.3,16,0.00,,---,0.00,VWS V14.01,2013-12-18 00:52:00,
2013-12-17 17:54:00,51.4,6.8,29.85,SSW,208,5.4,6.3,16,0.00,,---,0.00,VWS V14.01,2013-12-18 00:54:00,
2013-12-17 17:55:00,51.4,6.8,29.85,SSW,209,5.4,5.8,16,0.00,,---,0.00,VWS V14.01,2013-12-18 00:55:00,
2013-12-17 17:57:00,51.4,6.8,29.85,SSW,206,5.4,7.2,16,0.00,,---,0.00,VWS V14.01,2013-12-18 00:57:00,
2013-12-17 17:59:00,51.4,6.8,29.85,SSW,212,5.8,9.2,16,0.00,,---,0.00,VWS V14.01,2013-12-18 00:59:00,
2013-12-17 18:00:00,51.4,6.8,29.85,SSW,201,7.6,9.6,16,0.00,,---,0.00,VWS V14.01,2013-12-18 01:00:00,
2013-12-17 18:02:00,51.6,6.9,29.82,SW,215,6.3,8.1,16,0.00,,---,0.00,VWS V14.01,2013-12-18 01:02:00,
2013-12-17 18:03:00,51.6,6.9,29.82,SW,218,4.9,6.3,16,0.00,,---,0.00,VWS V14.01,2013-12-18 01:03:00,
2013-12-17 18:04:00,51.6,6.9,29.82,SW,217,5.8,5.8,16,0.00,,---,0.00,VWS V14.01,2013-12-18 01:04:00,
2013-12-17 18:06:00,51.6,6.9,29.82,SSW,202,7.6,7.6,16,0.00,,---,0.00,VWS V14.01,2013-12-18 01:06:00,
2013-12-17 18:07:00,51.6,6.9,29.82,SSW,210,5.8,6.3,16,0.00,,---,0.00,VWS V14.01,2013-12-18 01:07:00,
2013-12-17 18:08:00,51.6,6.9,29.82,SSW,196,5.4,5.8,16,0.00,,---,0.00,VWS V14.01,2013-12-18 01:08:00,
2013-12-17 18:09:00,51.6,6.9,29.82,SSW,204,5.8,5.8,16,0.00,,---,0.00,VWS V14.01,2013-12-18 01:09:00,
2013-12-17 18:11:00,51.4,6.8,29.82,SSW,202,8.1,8.1,16,0.00,,---,0.00,VWS V14.01,2013-12-18 01:11:00,
2013-12-17 18:13:00,51.4,6.8,29.82,South,190,5.4,5.8,16,0.00,,---,0.00,VWS V14.01,2013-12-18 01:13:00,
2013-12-17 18:14:00,51.4,6.8,29.82,SSW,207,4.9,5.4,16,0.00,,---,0.00,VWS V14.01,2013-12-18 01:14:00,
2013-12-17 18:15:00,50.2,2.8,29.82,SSW,210,8.3,8.3,14,0.00,,,0.00,VWS V15.00,2013-12-18 01:15:00,
2013-12-17 18:16:00,51.4,6.8,29.82,SSW,213,6.3,6.3,16,0.00,,---,0.00,VWS V14.01,2013-12-18 01:16:00,
2013-12-17 18:18:00,51.4,6.8,29.82,SSW,209,6.3,6.3,16,0.00,,---,0.00,VWS V14.01,2013-12-18 01:18:00,
2013-12-17 18:19:00,51.4,6.8,29.82,SSW,204,5.4,5.8,16,0.00,,---,0.00,VWS V14.01,2013-12-18 01:19:00,
2013-12-17 18:21:00,51.4,6.8,29.82,SSW,208,3.6,7.2,16,0.00,,---,0.00,VWS V14.01,2013-12-18 01:21:00,
2013-12-17 18:23:00,51.6,6.9,29.82,SSW,211,8.1,8.1,16,0.00,,---,0.00,VWS V14.01,2013-12-18 01:23:00,
2013-12-17 18:24:00,51.6,6.9,29.82,SSW,197,7.6,7.6,16,0.00,,---,0.00,VWS V14.01,2013-12-18 01:24:00,
2013-12-17 18:26:00,51.6,6.9,29.82,SW,216,6.3,6.3,16,0.00,,---,0.00,VWS V14.01,2013-12-18 01:26:00,
2013-12-17 18:27:00,51.4,6.8,29.82,SW,229,5.8,6.3,16,0.00,,---,0.00,VWS V14.01,2013-12-18 01:27:00,
2013-12-17 18:28:00,51.4,6.8,29.82,SW,215,5.8,5.8,16,0.00,,---,0.00,VWS V14.01,2013-12-18 01:28:00,
2013-12-17 18:29:00,51.4,6.8,29.82,SSW,212,5.8,7.6,16,0.00,,---,0.00,VWS V14.01,2013-12-18 01:29:00,
2013-12-17 18:30:00,50.7,3.3,29.82,SW,218,5.8,5.8,14,0.00,,,0.00,VWS V15.00,2013-12-18 01:30:00,
2013-12-17 18:31:00,51.3,3.7,29.82,SSW,196,5.4,5.8,14,0.00,,---,0.00,VWS V14.01,2013-12-18 01:31:00,
2013-12-17 18:32:00,51.3,6.6,29.82,SSW,196,6.3,6.3,16,0.00,,---,0.00,VWS V14.01,2013-12-18 01:32:00,
2013-12-17 18:33:00,51.3,6.6,29.82,SSW,196,6.3,6.3,16,0.00,,---,0.00,VWS V14.01,2013-12-18 01:33:00,
2013-12-17 18:34:00,51.3,3.7,29.82,SSW,208,6.3,6.3,14,0.00,,---,0.00,VWS V14.01,2013-12-18 01:34:00,
2013-12-17 18:36:00,51.3,6.6,29.82,SSW,213,5.4,6.3,16,0.00,,---,0.00,VWS V14.01,2013-12-18 01:36:00,
2013-12-17 18:37:00,51.3,6.6,29.82,SSW,203,7.6,7.6,16,0.00,,---,0.00,VWS V14.01,2013-12-18 01:37:00,
2013-12-17 18:38:00,51.3,3.7,29.82,SSW,205,8.7,8.7,14,0.00,,---,0.00,VWS V14.01,2013-12-18 01:38:00,
2013-12-17 18:39:00,51.3,6.6,29.82,SSW,207,6.3,6.3,16,0.00,,---,0.00,VWS V14.01,2013-12-18 01:39:00,
2013-12-17 18:41:00,51.3,6.6,29.82,SSW,209,5.8,5.8,16,0.00,,---,0.00,VWS V14.01,2013-12-18 01:41:00,
2013-12-17 18:42:00,51.1,3.6,29.82,SSW,212,8.3,8.3,14,0.00,,---,0.00,VWS V14.01,2013-12-18 01:42:00,
2013-12-17 18:43:00,51.1,3.6,29.82,SSW,208,5.8,7.6,14,0.00,,---,0.00,VWS V14.01,2013-12-18 01:43:00,
2013-12-17 18:44:00,51.1,3.6,29.82,SSW,208,5.8,5.8,14,0.00,,---,0.00,VWS V14.01,2013-12-18 01:44:00,
2013-12-17 18:45:00,51.1,3.6,29.79,SSW,209,5.4,5.4,14,0.00,,,0.00,VWS V15.00,2013-12-18 01:45:00,
2013-12-17 18:47:00,51.1,3.6,29.82,SW,224,4.0,4.9,14,0.00,,---,0.00,VWS V14.01,2013-12-18 01:47:00,
2013-12-17 18:48:00,51.1,3.6,29.82,SSW,206,4.9,6.3,14,0.00,,---,0.00,VWS V14.01,2013-12-18 01:48:00,
2013-12-17 18:49:00,51.1,3.6,29.82,SW,216,6.3,6.3,14,0.00,,---,0.00,VWS V14.01,2013-12-18 01:49:00,
2013-12-17 18:50:00,50.9,3.4,29.82,SSW,202,6.3,7.6,14,0.00,,---,0.00,VWS V14.01,2013-12-18 01:50:00,
2013-12-17 18:51:00,50.9,3.4,29.82,SW,218,7.6,9.2,14,0.00,,---,0.00,VWS V14.01,2013-12-18 01:51:00,
2013-12-17 18:52:00,50.9,3.4,29.82,SSW,205,6.3,6.3,14,0.00,,---,0.00,VWS V14.01,2013-12-18 01:52:00,
2013-12-17 18:53:00,50.9,3.4,29.82,SSW,202,5.4,6.3,14,0.00,,---,0.00,VWS V14.01,2013-12-18 01:53:00,
2013-12-17 18:54:00,50.9,3.4,29.82,SSW,203,6.3,6.3,14,0.00,,---,0.00,VWS V14.01,2013-12-18 01:54:00,
2013-12-17 18:55:00,50.9,3.4,29.82,SSW,205,5.4,5.8,14,0.00,,---,0.00,VWS V14.01,2013-12-18 01:55:00,
2013-12-17 18:56:00,50.9,3.4,29.82,South,182,8.7,8.7,14,0.00,,---,0.00,VWS V14.01,2013-12-18 01:56:00,
2013-12-17 18:57:00,50.9,3.4,29.82,SSW,211,6.3,6.3,14,0.00,,---,0.00,VWS V14.01,2013-12-18 01:57:00,
2013-12-17 18:58:00,50.9,3.4,29.82,SSW,210,7.6,7.6,14,0.00,,---,0.00,VWS V14.01,2013-12-18 01:58:00,
2013-12-17 18:59:00,50.9,3.4,29.82,SSW,211,5.8,7.6,14,0.00,,---,0.00,VWS V14.01,2013-12-18 01:59:00,
2013-12-17 19:00:00,50.7,3.3,29.82,SSW,212,6.3,6.3,14,0.00,,---,0.00,VWS V14.01,2013-12-18 02:00:00,
2013-12-17 19:01:00,50.7,3.3,29.82,SSW,206,8.3,8.3,14,0.00,,---,0.00,VWS V14.01,2013-12-18 02:01:00,
2013-12-17 19:02:00,50.7,3.3,29.82,SSW,192,6.3,7.6,14,0.00,,---,0.00,VWS V14.01,2013-12-18 02:02:00,
2013-12-17 19:03:00,50.7,3.3,29.82,SSW,205,8.1,8.1,14,0.00,,---,0.00,VWS V14.01,2013-12-18 02:03:00,
2013-12-17 19:04:00,50.7,3.3,29.82,SW,217,5.4,6.3,14,0.00,,---,0.00,VWS V14.01,2013-12-18 02:04:00,
2013-12-17 19:06:00,50.7,3.3,29.82,SW,223,5.8,8.3,14,0.00,,---,0.00,VWS V14.01,2013-12-18 02:06:00,
2013-12-17 19:07:00,50.7,3.3,29.82,SSW,198,4.9,5.4,14,0.00,,---,0.00,VWS V14.01,2013-12-18 02:07:00,
2013-12-17 19:08:00,50.7,3.3,29.82,SW,231,4.5,5.8,14,0.00,,---,0.00,VWS V14.01,2013-12-18 02:08:00,
2013-12-17 19:09:00,50.7,3.3,29.82,SW,233,3.1,3.1,14,0.00,,---,0.00,VWS V14.01,2013-12-18 02:09:00,
2013-12-17 19:11:00,50.5,6.0,29.82,SW,219,5.4,5.4,16,0.00,,---,0.00,VWS V14.01,2013-12-18 02:11:00,
2013-12-17 19:12:00,50.4,3.0,29.82,SSW,195,6.3,6.7,14,0.00,,---,0.00,VWS V14.01,2013-12-18 02:12:00,
2013-12-17 19:13:00,50.4,3.0,29.82,SSW,204,5.8,5.8,14,0.00,,---,0.00,VWS V14.01,2013-12-18 02:13:00,
2013-12-17 19:14:00,50.4,3.0,29.82,SSW,204,5.8,5.8,14,0.00,,---,0.00,VWS V14.01,2013-12-18 02:14:00,
2013-12-17 19:15:00,50.4,3.0,29.79,SSW,206,8.1,8.3,14,0.00,,,0.00,VWS V15.00,2013-12-18 02:15:00,
2013-12-17 19:16:00,50.4,3.0,29.82,SSW,211,5.8,6.3,14,0.00,,---,0.00,VWS V14.01,2013-12-18 02:16:00,
2013-12-17 19:17:00,50.4,3.0,29.82,SSW,213,4.0,5.8,14,0.00,,---,0.00,VWS V14.01,2013-12-18 02:17:00,
2013-12-17 19:18:00,50.4,3.0,29.82,SW,217,4.0,7.6,14,0.00,,---,0.00,VWS V14.01,2013-12-18 02:18:00,
2013-12-17 19:19:00,50.5,3.1,29.82,SSW,204,5.8,7.6,14,0.00,,---,0.00,VWS V14.01,2013-12-18 02:19:00,
2013-12-17 19:21:00,50.5,3.1,29.82,SSW,205,3.1,4.9,14,0.00,,---,0.00,VWS V14.01,2013-12-18 02:21:00,
2013-12-17 19:22:00,50.7,3.3,29.82,SSW,202,5.4,5.4,14,0.00,,---,0.00,VWS V14.01,2013-12-18 02:22:00,
2013-12-17 19:23:00,50.7,3.3,29.82,SSW,213,5.4,5.4,14,0.00,,---,0.00,VWS V14.01,2013-12-18 02:23:00,
2013-12-17 19:24:00,50.5,3.1,29.82,SSW,209,6.3,6.3,14,0.00,,---,0.00,VWS V14.01,2013-12-18 02:24:00,
2013-12-17 19:27:00,50.7,3.3,29.82,SSW,206,7.6,7.6,14,0.00,,---,0.00,VWS V14.01,2013-12-18 02:27:00,
2013-12-17 19:28:00,50.7,3.3,29.82,SSW,203,5.8,5.8,14,0.00,,---,0.00,VWS V14.01,2013-12-18 02:28:00,
2013-12-17 19:29:00,50.7,3.3,29.82,SSW,209,5.4,5.8,14,0.00,,---,0.00,VWS V14.01,2013-12-18 02:29:00,
2013-12-17 19:30:00,50.7,3.3,29.82,SSW,202,5.8,5.8,14,0.00,,---,0.00,VWS V14.01,2013-12-18 02:30:00,
2013-12-17 19:32:00,50.7,3.3,29.82,SW,218,5.8,6.7,14,0.00,,---,0.00,VWS V14.01,2013-12-18 02:32:00,
2013-12-17 19:33:00,50.7,3.3,29.79,SSW,204,5.8,5.8,14,0.00,,---,0.00,VWS V14.01,2013-12-18 02:33:00,
2013-12-17 19:34:00,50.7,3.3,29.79,SSW,206,5.8,5.8,14,0.00,,---,0.00,VWS V14.01,2013-12-18 02:34:00,
2013-12-17 19:35:00,50.7,3.3,29.79,South,185,5.4,6.3,14,0.00,,---,0.00,VWS V14.01,2013-12-18 02:35:00,
2013-12-17 19:37:00,50.7,3.3,29.79,SW,216,8.3,8.7,14,0.00,,---,0.00,VWS V14.01,2013-12-18 02:37:00,
2013-12-17 19:38:00,50.9,3.4,29.79,SSW,196,5.8,6.3,14,0.00,,---,0.00,VWS V14.01,2013-12-18 02:38:00,
2013-12-17 19:39:00,50.9,3.4,29.79,SSW,208,6.3,6.3,14,0.00,,---,0.00,VWS V14.01,2013-12-18 02:39:00,
2013-12-17 19:40:00,51.1,3.6,29.79,SSW,201,5.4,5.4,14,0.00,,---,0.00,VWS V14.01,2013-12-18 02:40:00,
2013-12-17 19:42:00,51.1,3.6,29.79,SSW,212,4.9,4.9,14,0.00,,---,0.00,VWS V14.01,2013-12-18 02:42:00,
2013-12-17 19:43:00,51.1,3.6,29.79,SSW,213,4.9,4.9,14,0.00,,---,0.00,VWS V14.01,2013-12-18 02:43:00,
2013-12-17 19:44:00,51.1,3.6,29.79,SSW,204,5.4,5.4,14,0.00,,---,0.00,VWS V14.01,2013-12-18 02:44:00,
2013-12-17 19:45:00,50.9,3.4,29.79,SSW,204,5.8,5.8,14,0.00,,---,0.00,VWS V14.01,2013-12-18 02:45:00,
2013-12-17 19:47:00,50.9,3.4,29.79,SSW,200,3.6,4.9,14,0.00,,---,0.00,VWS V14.01,2013-12-18 02:47:00,
2013-12-17 19:48:00,50.7,3.3,29.79,SSW,213,4.0,4.9,14,0.00,,---,0.00,VWS V14.01,2013-12-18 02:48:00,
2013-12-17 19:49:00,50.7,3.3,29.79,SW,227,4.0,5.8,14,0.00,,---,0.00,VWS V14.01,2013-12-18 02:49:00,
2013-12-17 19:50:00,50.7,3.3,29.79,SW,227,4.0,4.0,14,0.00,,---,0.00,VWS V14.01,2013-12-18 02:50:00,
2013-12-17 19:51:00,50.7,3.3,29.79,SSW,208,6.3,6.3,14,0.00,,---,0.00,VWS V14.01,2013-12-18 02:51:00,
2013-12-17 19:52:00,50.7,3.3,29.79,SSW,203,4.9,4.9,14,0.00,,---,0.00,VWS V14.01,2013-12-18 02:52:00,
2013-12-17 19:53:00,50.7,3.3,29.79,SW,216,4.5,4.9,14,0.00,,---,0.00,VWS V14.01,2013-12-18 02:53:00,
2013-12-17 19:54:00,50.7,3.3,29.79,SW,214,4.0,4.5,14,0.00,,---,0.00,VWS V14.01,2013-12-18 02:54:00,
2013-12-17 19:55:00,50.7,3.3,29.79,SSW,210,3.6,3.6,14,0.00,,---,0.00,VWS V14.01,2013-12-18 02:55:00,
2013-12-17 19:56:00,50.5,3.1,29.79,SSW,213,5.4,5.4,14,0.00,,---,0.00,VWS V14.01,2013-12-18 02:56:00,
2013-12-17 19:58:00,50.5,3.1,29.79,SSW,211,5.8,5.8,14,0.00,,---,0.00,VWS V14.01,2013-12-18 02:58:00,
2013-12-17 19:59:00,50.4,3.0,29.79,SW,214,5.8,6.3,14,0.00,,---,0.00,VWS V14.01,2013-12-18 02:59:00,
2013-12-17 20:00:00,50.4,3.0,29.79,SSW,205,5.4,6.3,14,0.00,,---,0.00,VWS V14.01,2013-12-18 03:00:00,
2013-12-17 20:01:00,50.4,3.0,29.79,SSW,204,6.7,6.7,14,0.00,,---,0.00,VWS V14.01,2013-12-18 03:01:00,
2013-12-17 20:03:00,50.4,3.0,29.79,SSW,209,5.8,5.8,14,0.00,,---,0.00,VWS V14.01,2013-12-18 03:03:00,
2013-12-17 20:04:00,50.4,3.0,29.79,SSW,209,7.2,7.2,14,0.00,,---,0.00,VWS V14.01,2013-12-18 03:04:00,
2013-12-17 20:05:00,50.4,3.0,29.79,SSW,203,5.8,7.6,14,0.00,,---,0.00,VWS V14.01,2013-12-18 03:05:00,
2013-12-17 20:06:00,50.2,2.8,29.79,SSW,196,7.6,7.6,14,0.00,,---,0.00,VWS V14.01,2013-12-18 03:06:00,
2013-12-17 20:08:00,50.4,3.0,29.79,SSW,205,8.1,8.1,14,0.00,,---,0.00,VWS V14.01,2013-12-18 03:08:00,
2013-12-17 20:09:00,50.4,3.0,29.79,SSW,208,8.1,8.1,14,0.00,,---,0.00,VWS V14.01,2013-12-18 03:09:00,
2013-12-17 20:10:00,50.4,3.0,29.79,SSW,208,5.8,6.7,14,0.00,,---,0.00,VWS V14.01,2013-12-18 03:10:00,
2013-12-17 20:11:00,50.4,3.0,29.79,SSW,202,5.4,5.4,14,0.00,,---,0.00,VWS V14.01,2013-12-18 03:11:00,
2013-12-17 20:13:00,50.4,3.0,29.79,SSW,205,6.3,6.3,14,0.00,,---,0.00,VWS V14.01,2013-12-18 03:13:00,
2013-12-17 20:14:00,50.4,3.0,29.79,SSW,211,8.1,8.1,14,0.00,,---,0.00,VWS V14.01,2013-12-18 03:14:00,
2013-12-17 20:15:00,50.4,3.0,29.79,SSW,206,8.1,8.1,14,0.00,,---,0.00,VWS V14.01,2013-12-18 03:15:00,
2013-12-17 20:16:00,50.4,3.0,29.79,SSW,213,5.8,7.6,14,0.00,,---,0.00,VWS V14.01,2013-12-18 03:16:00,
2013-12-17 20:18:00,50.5,3.1,29.79,SW,223,4.0,5.8,14,0.00,,---,0.00,VWS V14.01,2013-12-18 03:18:00,
2013-12-17 20:19:00,50.5,3.1,29.79,SSW,199,5.4,5.4,14,0.00,,---,0.00,VWS V14.01,2013-12-18 03:19:00,
2013-12-17 20:20:00,50.5,3.1,29.79,SW,217,3.1,5.8,14,0.00,,---,0.00,VWS V14.01,2013-12-18 03:20:00,
2013-12-17 20:21:00,50.5,3.1,29.79,SSW,199,7.6,7.6,14,0.00,,---,0.00,VWS V14.01,2013-12-18 03:21:00,
2013-12-17 20:24:00,50.5,3.1,29.79,SW,230,4.0,5.8,14,0.00,,---,0.00,VWS V14.01,2013-12-18 03:24:00,
2013-12-17 20:25:00,50.5,3.1,29.79,SW,228,6.3,6.3,14,0.00,,---,0.00,VWS V14.01,2013-12-18 03:25:00,
2013-12-17 20:26:00,50.5,3.1,29.79,SSW,207,5.8,8.7,14,0.00,,---,0.00,VWS V14.01,2013-12-18 03:26:00,
2013-12-17 20:29:00,50.7,3.3,29.79,WSW,237,3.1,4.5,14,0.00,,---,0.00,VWS V14.01,2013-12-18 03:29:00,
2013-12-17 20:30:00,50.5,3.1,29.79,West,268,4.0,4.0,14,0.00,,---,0.00,VWS V14.01,2013-12-18 03:30:00,
2013-12-17 20:31:00,50.5,3.1,29.79,SW,222,4.9,4.9,14,0.00,,---,0.00,VWS V14.01,2013-12-18 03:31:00,
2013-12-17 20:32:00,50.5,3.1,29.79,SSW,211,7.6,7.6,14,0.00,,---,0.00,VWS V14.01,2013-12-18 03:32:00,
2013-12-17 20:34:00,50.5,3.1,29.79,SW,232,3.1,5.8,14,0.00,,---,0.00,VWS V14.01,2013-12-18 03:34:00,
2013-12-17 20:35:00,50.5,3.1,29.79,WSW,238,3.6,3.6,14,0.00,,---,0.00,VWS V14.01,2013-12-18 03:35:00,
2013-12-17 20:36:00,50.5,3.1,29.79,SSW,202,5.4,5.4,14,0.00,,---,0.00,VWS V14.01,2013-12-18 03:36:00,
2013-12-17 20:37:00,50.4,3.0,29.79,SW,223,5.4,5.8,14,0.00,,---,0.00,VWS V14.01,2013-12-18 03:37:00,
2013-12-17 20:39:00,50.4,3.0,29.79,SW,235,6.3,6.3,14,0.00,,---,0.00,VWS V14.01,2013-12-18 03:39:00,
2013-12-17 20:40:00,50.4,3.0,29.79,WSW,245,4.0,5.4,14,0.00,,---,0.00,VWS V14.01,2013-12-18 03:40:00,
2013-12-17 20:41:00,50.2,2.8,29.79,SW,224,4.0,4.0,14,0.00,,---,0.00,VWS V14.01,2013-12-18 03:41:00,
2013-12-17 20:42:00,50.2,2.8,29.79,SSW,210,5.4,5.4,14,0.00,,---,0.00,VWS V14.01,2013-12-18 03:42:00,
2013-12-17 20:44:00,50.2,2.8,29.79,SSW,198,3.6,5.4,14,0.00,,---,0.00,VWS V14.01,2013-12-18 03:44:00,
2013-12-17 20:45:00,50.2,2.8,29.79,SSW,212,3.6,5.4,14,0.00,,---,0.00,VWS V14.01,2013-12-18 03:45:00,
2013-12-17 20:46:00,50.2,2.8,29.79,SSW,194,8.3,8.3,14,0.00,,---,0.00,VWS V14.01,2013-12-18 03:46:00,
2013-12-17 20:47:00,50.2,2.8,29.79,SSW,196,6.3,6.3,14,0.00,,---,0.00,VWS V14.01,2013-12-18 03:47:00,
2013-12-17 20:49:00,50.2,2.8,29.79,SSW,205,6.3,6.3,14,0.00,,---,0.00,VWS V14.01,2013-12-18 03:49:00,
2013-12-17 20:50:00,50.2,2.8,29.79,SSW,203,4.0,5.8,14,0.00,,---,0.00,VWS V14.01,2013-12-18 03:50:00,
2013-12-17 20:51:00,50.2,2.8,29.79,SSW,202,5.4,6.3,14,0.00,,---,0.00,VWS V14.01,2013-12-18 03:51:00,
2013-12-17 20:52:00,50.2,2.8,29.79,SW,214,5.8,5.8,14,0.00,,---,0.00,VWS V14.01,2013-12-18 03:52:00,
2013-12-17 20:54:00,50.4,3.0,29.79,SSW,210,5.4,5.4,14,0.00,,---,0.00,VWS V14.01,2013-12-18 03:54:00,
2013-12-17 20:56:00,50.4,3.0,29.79,SW,217,5.8,5.8,14,0.00,,---,0.00,VWS V14.01,2013-12-18 03:56:00,
2013-12-17 20:57:00,50.4,3.0,29.79,SW,214,4.9,4.9,14,0.00,,---,0.00,VWS V14.01,2013-12-18 03:57:00,
2013-12-17 20:59:00,50.5,3.1,29.79,SSW,192,5.4,5.8,14,0.00,,---,0.00,VWS V14.01,2013-12-18 03:59:00,
2013-12-17 21:00:00,46.0,1.0,29.79,NNE,14,0.0,0.0,15,0.00,,,0.00,VWS V15.00,2013-12-18 04:00:00,
2013-12-17 21:01:00,50.4,3.0,29.79,SSW,203,5.8,5.8,14,0.00,,---,0.00,VWS V14.01,2013-12-18 04:01:00,
2013-12-17 21:02:00,50.4,3.0,29.79,SSW,203,6.3,6.3,14,0.00,,---,0.00,VWS V14.01,2013-12-18 04:02:00,
2013-12-17 21:03:00,50.4,3.0,29.79,SSW,198,6.3,7.6,14,0.00,,---,0.00,VWS V14.01,2013-12-18 04:03:00,
2013-12-17 21:04:00,50.4,3.0,29.79,SW,234,5.4,8.3,14,0.00,,---,0.00,VWS V14.01,2013-12-18 04:04:00,
2013-12-17 21:06:00,50.4,3.0,29.79,SSW,203,6.3,6.3,14,0.00,,---,0.00,VWS V14.01,2013-12-18 04:06:00,
2013-12-17 21:07:00,50.4,3.0,29.79,SSW,212,10.5,10.5,14,0.00,,---,0.00,VWS V14.01,2013-12-18 04:07:00,
2013-12-17 21:08:00,50.5,3.1,29.79,SSW,210,7.6,8.1,14,0.00,,---,0.00,VWS V14.01,2013-12-18 04:08:00,
2013-12-17 21:09:00,50.5,3.1,29.79,SSW,212,5.8,6.3,14,0.00,,---,0.00,VWS V14.01,2013-12-18 04:09:00,
2013-12-17 21:10:00,50.5,3.1,29.79,SSW,211,5.8,6.3,14,0.00,,---,0.00,VWS V14.01,2013-12-18 04:10:00,
2013-12-17 21:11:00,50.5,3.1,29.79,SSW,207,5.4,5.4,14,0.00,,---,0.00,VWS V14.01,2013-12-18 04:11:00,
2013-12-17 21:12:00,50.5,3.1,29.79,SSW,210,5.4,5.4,14,0.00,,---,0.00,VWS V14.01,2013-12-18 04:12:00,
2013-12-17 21:13:00,50.5,3.1,29.79,SW,225,3.1,3.6,14,0.00,,---,0.00,VWS V14.01,2013-12-18 04:13:00,
2013-12-17 21:14:00,50.5,3.1,29.79,SSW,212,9.6,9.6,14,0.00,,---,0.00,VWS V14.01,2013-12-18 04:14:00,
2013-12-17 21:15:00,50.5,3.1,29.79,South,187,5.4,5.8,14,0.00,,---,0.00,VWS V14.01,2013-12-18 04:15:00,
2013-12-17 21:16:00,50.5,3.1,29.79,SSW,199,4.0,5.4,14,0.00,,---,0.00,VWS V14.01,2013-12-18 04:16:00,
2013-12-17 21:17:00,50.5,3.1,29.79,SSW,212,3.6,3.6,14,0.00,,---,0.00,VWS V14.01,2013-12-18 04:17:00,
2013-12-17 21:18:00,50.5,3.1,29.79,SW,226,4.0,4.0,14,0.00,,---,0.00,VWS V14.01,2013-12-18 04:18:00,
2013-12-17 21:19:00,50.4,3.0,29.79,SW,218,2.7,3.1,14,0.00,,---,0.00,VWS V14.01,2013-12-18 04:19:00,
2013-12-17 21:20:00,50.2,2.8,29.79,SW,218,0.0,2.2,14,0.00,,---,0.00,VWS V14.01,2013-12-18 04:20:00,
2013-12-17 21:21:00,50.2,2.8,29.79,WSW,237,2.7,3.6,14,0.00,,---,0.00,VWS V14.01,2013-12-18 04:21:00,
2013-12-17 21:22:00,50.0,2.7,29.79,SSW,204,3.1,3.6,14,0.00,,---,0.00,VWS V14.01,2013-12-18 04:22:00,
2013-12-17 21:23:00,50.0,2.7,29.79,SSW,211,3.1,3.6,14,0.00,,---,0.00,VWS V14.01,2013-12-18 04:23:00,
2013-12-17 21:24:00,49.8,2.5,29.79,SSW,211,0.0,0.0,14,0.00,,---,0.00,VWS V14.01,2013-12-18 04:24:00,
2013-12-17 21:25:00,49.8,2.5,29.79,SSW,211,0.0,2.2,14,0.00,,---,0.00,VWS V14.01,2013-12-18 04:25:00,
2013-12-17 21:26:00,49.6,2.4,29.79,SSW,211,0.0,2.2,14,0.00,,---,0.00,VWS V14.01,2013-12-18 04:26:00,
2013-12-17 21:27:00,49.6,2.4,29.79,SSW,206,3.1,3.1,14,0.00,,---,0.00,VWS V14.01,2013-12-18 04:27:00,
2013-12-17 21:28:00,49.6,2.4,29.79,SSW,210,4.0,5.8,14,0.00,,---,0.00,VWS V14.01,2013-12-18 04:28:00,
2013-12-17 21:29:00,49.5,2.3,29.79,SW,217,3.1,3.1,14,0.00,,---,0.00,VWS V14.01,2013-12-18 04:29:00,
2013-12-17 21:30:00,49.5,2.3,29.79,SSW,199,3.6,4.0,14,0.00,,---,0.00,VWS V14.01,2013-12-18 04:30:00,
2013-12-17 21:32:00,49.5,2.3,29.79,SW,235,4.0,4.0,14,0.00,,---,0.00,VWS V14.01,2013-12-18 04:32:00,
2013-12-17 21:33:00,49.5,2.3,29.79,SW,221,4.0,4.0,14,0.00,,---,0.00,VWS V14.01,2013-12-18 04:33:00,
2013-12-17 21:35:00,49.6,2.4,29.79,SW,223,0.0,3.1,14,0.00,,---,0.00,VWS V14.01,2013-12-18 04:35:00,
2013-12-17 21:37:00,49.6,2.4,29.79,NW,317,3.1,3.6,14,0.00,,---,0.00,VWS V14.01,2013-12-18 04:37:00,
2013-12-17 21:38:00,49.6,2.4,29.79,North,5,4.0,4.0,14,0.00,,---,0.00,VWS V14.01,2013-12-18 04:38:00,
2013-12-17 21:40:00,49.1,2.0,29.79,NNE,19,0.0,0.0,14,0.00,,---,0.00,VWS V14.01,2013-12-18 04:40:00,
2013-12-17 21:41:00,49.1,2.0,29.79,NNE,19,0.0,0.0,14,0.00,,---,0.00,VWS V14.01,2013-12-18 04:41:00,
2013-12-17 21:42:00,48.7,1.7,29.79,North,1,0.0,0.0,14,0.00,,---,0.00,VWS V14.01,2013-12-18 04:42:00,
2013-12-17 21:43:00,48.4,1.4,29.79,ENE,63,0.0,0.0,14,0.00,,---,0.00,VWS V14.01,2013-12-18 04:43:00,
2013-12-17 21:45:00,48.0,1.1,29.79,NNE,14,2.7,3.6,14,0.00,,---,0.00,VWS V14.01,2013-12-18 04:45:00,
2013-12-17 21:46:00,48.0,1.1,29.79,NNE,14,0.0,0.0,14,0.00,,---,0.00,VWS V14.01,2013-12-18 04:46:00,
2013-12-17 21:47:00,47.7,0.8,29.79,North,9,0.0,0.0,14,0.00,,---,0.00,VWS V14.01,2013-12-18 04:47:00,
2013-12-17 21:48:00,47.5,0.7,29.79,North,9,0.0,0.0,14,0.00,,---,0.00,VWS V14.01,2013-12-18 04:48:00,
2013-12-17 21:49:00,47.3,0.5,29.79,North,9,0.0,0.0,14,0.00,,---,0.00,VWS V14.01,2013-12-18 04:49:00,
2013-12-17 21:50:00,47.3,0.5,29.79,NE,52,0.0,0.0,14,0.00,,---,0.00,VWS V14.01,2013-12-18 04:50:00,
2013-12-17 21:51:00,47.1,0.4,29.79,NE,52,0.0,0.0,14,0.00,,---,0.00,VWS V14.01,2013-12-18 04:51:00,
2013-12-17 21:52:00,47.1,0.4,29.79,NE,52,0.0,0.0,14,0.00,,---,0.00,VWS V14.01,2013-12-18 04:52:00,
2013-12-17 21:53:00,46.9,0.2,29.79,NE,52,0.0,0.0,14,0.00,,---,0.00,VWS V14.01,2013-12-18 04:53:00,
2013-12-17 21:54:00,46.9,0.2,29.79,NE,52,0.0,0.0,14,0.00,,---,0.00,VWS V14.01,2013-12-18 04:54:00,
2013-12-17 21:55:00,46.8,0.1,29.79,NE,52,0.0,0.0,14,0.00,,---,0.00,VWS V14.01,2013-12-18 04:55:00,
2013-12-17 21:56:00,46.6,-0.1,29.79,NE,52,0.0,0.0,14,0.00,,---,0.00,VWS V14.01,2013-12-18 04:56:00,
2013-12-17 21:57:00,46.4,-0.2,29.79,NE,52,0.0,0.0,14,0.00,,---,0.00,VWS V14.01,2013-12-18 04:57:00,
2013-12-17 21:58:00,46.2,1.1,29.79,NE,52,0.0,0.0,15,0.00,,---,0.00,VWS V14.01,2013-12-18 04:58:00,
2013-12-17 21:59:00,46.2,1.1,29.79,NNE,15,0.0,0.0,15,0.00,,---,0.00,VWS V14.01,2013-12-18 04:59:00,
2013-12-17 22:00:00,45.9,0.8,29.79,NNE,18,0.0,0.0,15,0.00,,---,0.00,VWS V14.01,2013-12-18 05:00:00,
2013-12-17 22:01:00,45.9,0.8,29.79,NNE,18,0.0,0.0,15,0.00,,---,0.00,VWS V14.01,2013-12-18 05:01:00,
2013-12-17 22:06:00,45.3,0.4,29.79,NNE,17,0.0,0.0,15,0.00,,---,0.00,VWS V14.01,2013-12-18 05:06:00,
2013-12-17 22:11:00,45.1,0.3,29.79,NW,309,0.0,0.0,15,0.00,,---,0.00,VWS V14.01,2013-12-18 05:11:00,
2013-12-17 22:15:00,48.0,1.1,29.79,SSW,209,5.4,5.4,14,0.00,,,0.00,VWS V15.00,2013-12-18 05:15:00,
2013-12-17 22:16:00,45.1,0.3,29.79,NW,310,0.0,0.0,15,0.00,,---,0.00,VWS V14.01,2013-12-18 05:16:00,
2013-12-17 22:21:00,45.9,0.8,29.79,NW,315,0.0,0.0,15,0.00,,---,0.00,VWS V14.01,2013-12-18 05:21:00,
2013-12-17 22:22:00,45.9,0.8,29.79,NW,315,0.0,0.0,15,0.00,,---,0.00,VWS V14.01,2013-12-18 05:22:00,
2013-12-17 22:26:00,45.9,0.8,29.79,NW,321,0.0,0.0,15,0.00,,---,0.00,VWS V14.01,2013-12-18 05:26:00,
2013-12-17 22:27:00,45.9,0.8,29.79,NW,321,0.0,0.0,15,0.00,,---,0.00,VWS V14.01,2013-12-18 05:27:00,
2013-12-17 22:30:00,47.7,0.8,29.79,SSW,210,5.4,5.8,14,0.00,,,0.00,VWS V15.00,2013-12-18 05:30:00,
2013-12-17 22:31:00,45.5,0.6,29.79,NW,321,0.0,0.0,15,0.00,,---,0.00,VWS V14.01,2013-12-18 05:31:00,
2013-12-17 22:32:00,45.5,0.6,29.79,NW,321,0.0,0.0,15,0.00,,---,0.00,VWS V14.01,2013-12-18 05:32:00,
2013-12-17 22:33:00,45.5,0.6,29.79,NW,321,0.0,0.0,15,0.00,,---,0.00,VWS V14.01,2013-12-18 05:33:00,
2013-12-17 22:36:00,45.3,0.4,29.79,SW,224,0.0,0.0,15,0.00,,---,0.00,VWS V14.01,2013-12-18 05:36:00,
2013-12-17 22:37:00,45.3,0.4,29.79,SSW,207,3.1,3.1,15,0.00,,---,0.00,VWS V14.01,2013-12-18 05:37:00,
2013-12-17 22:41:00,45.7,0.7,29.79,SSW,198,5.4,5.4,15,0.00,,---,0.00,VWS V14.01,2013-12-18 05:41:00,
2013-12-17 22:42:00,46.0,1.0,29.79,SSW,198,5.4,5.4,15,0.00,,---,0.00,VWS V14.01,2013-12-18 05:42:00,
2013-12-17 22:43:00,46.2,1.1,29.79,SSW,197,5.4,5.4,15,0.00,,---,0.00,VWS V14.01,2013-12-18 05:43:00,
2013-12-17 22:45:00,47.3,0.5,29.79,SSW,209,6.7,6.7,14,0.00,,,0.00,VWS V15.00,2013-12-18 05:45:00,
2013-12-17 22:47:00,47.1,0.4,29.79,SSW,207,4.9,5.4,14,0.00,,---,0.00,VWS V14.01,2013-12-18 05:47:00,
2013-12-17 22:48:00,47.1,0.4,29.79,SSW,207,4.9,5.4,14,0.00,,---,0.00,VWS V14.01,2013-12-18 05:48:00,
2013-12-17 22:52:00,47.5,0.7,29.79,SSW,209,5.8,6.3,14,0.00,,---,0.00,VWS V14.01,2013-12-18 05:52:00,
2013-12-17 22:53:00,47.5,0.7,29.79,SSW,203,5.4,5.4,14,0.00,,---,0.00,VWS V14.01,2013-12-18 05:53:00,
2013-12-17 22:57:00,47.8,1.0,29.79,SSW,209,4.0,4.9,14,0.00,,---,0.00,VWS V14.01,2013-12-18 05:57:00,
2013-12-17 22:58:00,47.8,1.0,29.79,SSW,206,4.0,4.0,14,0.00,,---,0.00,VWS V14.01,2013-12-18 05:58:00,
2013-12-17 23:00:00,47.7,0.8,29.79,SSW,206,5.8,6.7,14,0.00,,,0.00,VWS V15.00,2013-12-18 06:00:00,
2013-12-17 23:02:00,47.8,1.0,29.79,SSW,203,5.4,5.4,14,0.00,,---,0.00,VWS V14.01,2013-12-18 06:02:00,
2013-12-17 23:03:00,47.7,0.8,29.79,SSW,207,6.3,6.3,14,0.00,,---,0.00,VWS V14.01,2013-12-18 06:03:00,
2013-12-17 23:04:00,47.7,0.8,29.79,SSW,205,4.9,6.3,14,0.00,,---,0.00,VWS V14.01,2013-12-18 06:04:00,
2013-12-17 23:05:00,47.8,1.0,29.79,SSW,207,4.9,5.4,14,0.00,,---,0.00,VWS V14.01,2013-12-18 06:05:00,
2013-12-17 23:07:00,47.8,1.0,29.79,SSW,206,5.8,5.8,14,0.00,,---,0.00,VWS V14.01,2013-12-18 06:07:00,
2013-12-17 23:08:00,47.8,1.0,29.79,SSW,211,4.9,4.9,14,0.00,,---,0.00,VWS V14.01,2013-12-18 06:08:00,
2013-12-17 23:09:00,47.8,1.0,29.79,SSW,204,5.4,5.8,14,0.00,,---,0.00,VWS V14.01,2013-12-18 06:09:00,
2013-12-17 23:10:00,47.8,1.0,29.79,SSW,205,5.8,6.3,14,0.00,,---,0.00,VWS V14.01,2013-12-18 06:10:00,
2013-12-17 23:12:00,48.0,1.1,29.79,SSW,198,5.8,5.8,14,0.00,,---,0.00,VWS V14.01,2013-12-18 06:12:00,
2013-12-17 23:13:00,48.0,1.1,29.79,SSW,200,5.8,5.8,14,0.00,,---,0.00,VWS V14.01,2013-12-18 06:13:00,
2013-12-17 23:14:00,48.0,1.1,29.79,SSW,207,5.8,6.3,14,0.00,,---,0.00,VWS V14.01,2013-12-18 06:14:00,
2013-12-17 23:15:00,48.0,1.1,29.79,SSW,209,5.4,5.4,14,0.00,,---,0.00,VWS V14.01,2013-12-18 06:15:00,
2013-12-17 23:17:00,47.8,1.0,29.79,South,190,5.8,6.3,14,0.00,,---,0.00,VWS V14.01,2013-12-18 06:17:00,
2013-12-17 23:18:00,47.8,1.0,29.79,SSW,194,5.4,5.4,14,0.00,,---,0.00,VWS V14.01,2013-12-18 06:18:00,
2013-12-17 23:19:00,47.8,1.0,29.79,SSW,198,6.3,6.3,14,0.00,,---,0.00,VWS V14.01,2013-12-18 06:19:00,
2013-12-17 23:20:00,47.8,1.0,29.79,SSW,208,8.1,8.1,14,0.00,,---,0.00,VWS V14.01,2013-12-18 06:20:00,
2013-12-17 23:22:00,47.7,0.8,29.79,SSW,211,5.8,6.3,14,0.00,,---,0.00,VWS V14.01,2013-12-18 06:22:00,
2013-12-17 23:23:00,47.7,0.8,29.79,SSW,198,6.3,6.3,14,0.00,,---,0.00,VWS V14.01,2013-12-18 06:23:00,
2013-12-17 23:24:00,47.7,0.8,29.79,SSW,196,7.6,7.6,14,0.00,,---,0.00,VWS V14.01,2013-12-18 06:24:00,
2013-12-17 23:25:00,47.7,0.8,29.79,SSW,207,5.8,7.6,14,0.00,,---,0.00,VWS V14.01,2013-12-18 06:25:00,
2013-12-17 23:27:00,47.7,0.8,29.79,SSW,193,5.8,6.3,14,0.00,,---,0.00,VWS V14.01,2013-12-18 06:27:00,
2013-12-17 23:28:00,47.7,0.8,29.79,SSW,204,6.3,6.3,14,0.00,,---,0.00,VWS V14.01,2013-12-18 06:28:00,
2013-12-17 23:29:00,47.7,0.8,29.79,SSW,199,6.3,7.6,14,0.00,,---,0.00,VWS V14.01,2013-12-18 06:29:00,
2013-12-17 23:30:00,47.7,0.8,29.79,SSW,210,5.4,5.8,14,0.00,,---,0.00,VWS V14.01,2013-12-18 06:30:00,
2013-12-17 23:32:00,47.7,0.8,29.79,SSW,212,4.9,4.9,14,0.00,,---,0.00,VWS V14.01,2013-12-18 06:32:00,
2013-12-17 23:33:00,47.7,0.8,29.79,SSW,212,4.0,4.9,14,0.00,,---,0.00,VWS V14.01,2013-12-18 06:33:00,
2013-12-17 23:34:00,47.5,0.7,29.79,SSW,204,6.3,6.3,14,0.00,,---,0.00,VWS V14.01,2013-12-18 06:34:00,
2013-12-17 23:35:00,47.5,0.7,29.79,SSW,207,5.4,5.8,14,0.00,,---,0.00,VWS V14.01,2013-12-18 06:35:00,
2013-12-17 23:38:00,47.5,0.7,29.79,SSW,207,5.8,5.8,14,0.00,,---,0.00,VWS V14.01,2013-12-18 06:38:00,
2013-12-17 23:39:00,47.3,0.5,29.79,SSW,198,5.4,6.3,14,0.00,,---,0.00,VWS V14.01,2013-12-18 06:39:00,
2013-12-17 23:40:00,47.3,0.5,29.79,SSW,197,5.4,6.3,14,0.00,,---,0.00,VWS V14.01,2013-12-18 06:40:00,
2013-12-17 23:41:00,47.3,0.5,29.79,SSW,195,5.8,5.8,14,0.00,,---,0.00,VWS V14.01,2013-12-18 06:41:00,
2013-12-17 23:43:00,47.3,0.5,29.79,SSW,197,5.8,7.6,14,0.00,,---,0.00,VWS V14.01,2013-12-18 06:43:00,
2013-12-17 23:44:00,47.3,0.5,29.79,SSW,210,6.3,6.3,14,0.00,,---,0.00,VWS V14.01,2013-12-18 06:44:00,
2013-12-17 23:45:00,47.5,0.7,29.79,SSW,199,6.7,6.7,14,0.00,,---,0.00,VWS V14.01,2013-12-18 06:45:00,
2013-12-17 23:46:00,47.5,0.7,29.79,SSW,194,7.6,7.6,14,0.00,,---,0.00,VWS V14.01,2013-12-18 06:46:00,
2013-12-17 23:48:00,47.5,0.7,29.79,SSW,209,8.1,8.1,14,0.00,,---,0.00,VWS V14.01,2013-12-18 06:48:00,
2013-12-17 23:49:00,47.5,0.7,29.79,SSW,200,7.6,7.6,14,0.00,,---,0.00,VWS V14.01,2013-12-18 06:49:00,
2013-12-17 23:50:00,47.5,0.7,29.79,South,189,6.7,8.1,14,0.00,,---,0.00,VWS V14.01,2013-12-18 06:50:00,
2013-12-17 23:51:00,47.5,0.7,29.79,South,191,7.6,7.6,14,0.00,,---,0.00,VWS V14.01,2013-12-18 06:51:00,
2013-12-17 23:53:00,47.5,0.7,29.79,SSW,210,4.9,6.3,14,0.00,,---,0.00,VWS V14.01,2013-12-18 06:53:00,
2013-12-17 23:54:00,47.7,0.8,29.79,SSW,195,5.8,5.8,14,0.00,,---,0.00,VWS V14.01,2013-12-18 06:54:00,
2013-12-17 23:55:00,47.7,0.8,29.79,SSW,208,5.4,7.2,14,0.00,,---,0.00,VWS V14.01,2013-12-18 06:55:00,
2013-12-17 23:56:00,47.7,0.8,29.79,SSW,206,5.8,7.2,14,0.00,,---,0.00,VWS V14.01,2013-12-18 06:56:00,
2013-12-17 23:57:00,47.7,0.8,29.79,SSW,204,7.6,7.6,14,0.00,,---,0.00,VWS V14.01,2013-12-18 06:57:00,
2013-12-17 23:58:00,47.7,0.8,29.79,SSW,195,5.4,6.7,14,0.00,,---,0.00,VWS V14.01,2013-12-18 06:58:00,
2013-12-17 23:59:00,47.7,0.8,29.79,SSW,194,5.8,5.8,14,0.00,,---,0.00,VWS V14.01,2013-12-18 06:59:00,